GFSSE_sfc_thetae_072.txt.gz
Theta_e
347 358 366 367 366 367 365 364 363 362 362 362 363 363 362 363 363 363 362 362 362 361 359 359 357 355 352 351 351 354 356 356 355 354 354 355 354 353 353 353 355 349 353
349 358 364 366 366 367 365 364 363 362 361 362 363 362 362 362 363 363 362 362 361 358 357 355 352 349 346 344 343 347 349 352 353 353 354 354 354 352 352 353 354 350 351
349 357 360 365 366 367 365 364 363 361 361 362 362 362 362 362 363 363 361 361 359 357 354 351 347 344 340 337 337 341 340 341 345 351 354 348 347 352 350 350 350 351 350
350 357 357 364 365 366 365 364 362 361 361 361 362 362 362 362 362 362 361 361 358 355 351 347 344 341 339 337 337 338 339 339 342 345 339 345 341 350 350 350 350 349 348
352 355 359 363 364 365 365 364 362 361 361 362 362 362 362 363 362 361 360 360 357 352 349 345 344 343 341 339 339 341 341 341 344 340 332 341 341 347 352 352 350 349 348
351 350 360 362 363 364 365 364 363 363 362 362 362 362 362 362 362 360 360 359 357 353 349 347 346 345 344 342 343 343 343 345 347 335 337 339 342 351 352 351 349 350 349
349 350 358 361 363 364 365 364 363 363 363 362 362 362 363 362 361 359 359 358 356 353 351 348 347 347 347 346 345 345 346 346 339 338 343 343 344 351 351 350 350 348 348
347 354 358 360 362 362 363 363 362 363 363 363 363 363 362 361 360 359 358 357 356 353 351 350 348 348 348 348 347 347 347 346 340 339 340 344 345 350 352 351 351 351 349
346 357 359 356 360 362 361 361 361 361 362 362 361 361 360 360 358 357 357 356 355 353 352 351 350 349 348 348 348 348 348 346 342 338 340 341 349 350 350 353 351 352 351
343 358 358 354 353 357 359 361 360 360 360 359 359 359 359 358 357 356 354 354 354 353 353 352 351 350 349 349 348 348 347 346 340 335 333 342 350 351 350 352 352 351 351
339 356 355 349 353 353 354 358 359 359 359 358 358 358 355 353 353 352 351 353 354 353 353 352 351 350 350 349 348 349 346 339 335 335 336 350 351 351 349 350 352 352 352
337 343 352 348 350 350 347 355 355 356 356 356 355 355 353 350 350 345 350 353 354 353 353 352 352 351 348 338 337 347 341 337 333 333 334 350 349 349 347 349 351 353 353
340 342 351 350 353 349 346 354 352 351 351 352 352 353 352 348 349 348 349 346 350 352 344 347 345 343 337 335 334 336 337 336 334 333 341 349 349 350 347 349 351 353 353
340 344 350 353 353 352 348 350 352 347 349 349 350 354 355 350 351 353 347 347 347 347 345 342 340 340 339 339 338 337 339 339 336 337 344 350 349 351 349 348 350 353 353
332 342 346 353 357 355 360 354 352 346 348 349 352 354 352 352 351 353 354 351 351 349 346 344 342 345 342 342 341 341 339 339 341 340 339 351 349 349 351 349 349 351 353
334 339 344 354 359 359 364 367 365 353 349 350 352 352 355 354 355 355 356 354 351 352 349 346 346 346 344 342 342 343 342 342 343 343 341 344 348 347 349 351 351 351 352
333 339 344 346 357 355 355 361 362 361 357 353 353 358 354 356 357 354 354 351 350 350 352 351 349 348 344 345 344 344 346 344 344 344 345 343 343 347 347 348 350 352 353
336 335 342 341 348 353 356 355 357 357 356 358 357 358 358 356 359 360 353 350 350 353 350 346 345 342 341 340 340 340 344 345 344 347 345 345 344 343 345 347 348 348 352
334 336 337 340 348 352 350 353 354 353 352 353 351 355 356 358 356 354 352 350 354 349 349 347 343 341 340 342 339 345 348 347 348 347 347 347 347 346 344 345 346 346 349
334 336 337 340 344 353 349 348 347 348 349 348 345 347 351 352 355 354 352 353 355 348 345 343 340 343 342 341 340 341 348 348 349 348 348 350 346 348 344 344 342 342 346
333 336 338 337 339 346 351 345 344 343 345 344 347 345 347 350 351 352 351 349 351 346 344 342 341 342 340 340 344 343 346 350 348 346 350 349 346 345 345 346 344 344 344
329 334 334 338 341 337 349 353 345 344 347 344 342 341 344 350 347 348 348 347 345 343 344 344 345 337 339 344 342 342 336 339 344 347 346 345 347 345 344 346 346 347 347
328 329 328 334 334 338 342 340 347 349 350 347 350 343 341 341 345 345 347 344 347 345 340 346 344 343 336 342 347 342 333 330 339 345 345 345 345 346 344 344 345 345 348
323 328 332 332 337 331 336 339 340 338 335 336 334 350 351 347 342 344 345 345 345 341 345 345 344 341 343 340 345 348 347 343 333 333 343 344 345 345 345 345 343 344 345
322 325 330 331 334 335 332 335 337 337 335 337 342 342 343 350 346 345 346 343 342 344 340 344 341 344 346 344 341 344 344 343 343 337 332 336 340 342 345 345 341 343 343
319 321 325 330 335 337 338 334 334 336 337 335 336 338 340 344 346 350 345 346 345 346 344 341 345 347 347 345 341 346 344 340 337 338 336 334 333 338 341 344 343 339 341

GFSSE_sfc_thetae_075.txt.gz
Theta_e
352 363 367 366 365 364 364 363 363 362 362 362 362 362 362 362 362 362 363 362 362 362 360 358 356 354 351 349 351 354 356 356 356 354 354 354 354 354 356 356 356 350 352
355 362 366 365 365 364 364 363 362 361 361 362 362 362 362 362 362 362 362 361 361 359 357 355 353 349 346 343 344 347 350 352 355 355 353 353 353 353 355 354 353 350 352
354 361 364 365 365 364 363 363 361 360 361 361 361 361 362 362 362 361 361 361 360 357 354 351 348 344 341 338 337 339 340 344 347 351 352 348 348 352 352 352 352 351 350
354 357 361 365 364 364 363 362 361 361 361 361 361 361 362 362 362 361 361 360 357 354 351 347 344 341 339 337 336 337 340 340 343 345 339 345 343 349 350 351 350 349 350
351 353 361 365 364 364 363 362 361 360 361 361 361 361 362 362 361 360 360 359 356 352 348 344 343 343 341 339 341 342 341 343 346 341 329 328 336 349 352 353 350 349 348
349 353 362 364 364 363 363 362 361 361 361 361 362 361 362 362 360 359 360 358 356 352 347 345 346 345 344 342 344 344 344 346 346 335 333 338 335 353 354 354 352 352 351
346 354 358 363 364 364 364 363 362 361 361 361 362 362 362 361 360 359 359 358 356 353 350 347 346 346 346 346 345 345 346 344 337 334 333 336 340 351 354 353 350 351 351
344 354 356 362 363 363 363 362 362 361 361 361 362 361 361 360 359 358 358 357 355 353 351 349 348 347 347 347 346 346 347 345 341 338 336 339 345 351 353 352 351 351 351
347 352 353 356 361 363 362 361 361 361 361 361 360 360 360 359 358 357 356 356 355 353 351 350 349 347 346 346 347 347 347 345 338 338 337 334 350 353 355 353 352 352 352
350 351 350 354 357 357 359 361 361 361 361 360 360 360 359 358 357 356 353 354 354 353 352 351 350 349 348 347 347 348 347 345 337 335 333 334 349 352 355 354 352 353 352
351 349 348 350 352 352 354 360 360 362 361 360 360 359 356 350 351 352 352 352 353 353 352 351 351 350 349 349 348 348 346 337 336 333 331 341 351 354 353 353 354 352 352
347 347 346 346 348 348 355 354 353 357 355 354 354 353 350 346 346 349 350 352 353 353 352 352 351 351 350 341 337 347 340 337 336 333 331 345 352 355 354 353 353 353 353
345 346 344 346 346 345 346 351 351 352 351 350 350 349 345 344 343 345 341 344 345 350 345 347 346 344 341 337 333 329 337 336 333 332 334 351 351 354 353 353 353 353 353
331 342 342 344 345 343 344 348 346 347 346 346 345 347 344 339 336 339 340 340 342 342 341 337 339 337 336 334 331 329 333 333 333 334 336 352 350 352 352 352 352 353 353
323 334 337 345 343 342 344 347 345 343 344 343 344 345 346 339 340 338 340 340 341 341 341 338 336 335 335 335 333 334 332 333 332 333 336 351 349 350 352 352 350 351 352
326 329 337 347 345 344 350 348 346 339 343 344 344 345 345 345 339 343 340 344 343 343 343 340 337 336 337 336 335 336 336 335 335 336 336 342 348 348 350 353 353 351 351
324 328 331 341 349 346 346 348 349 350 342 342 345 345 347 345 346 340 345 342 342 342 342 340 339 340 338 338 335 335 337 337 336 337 337 337 343 348 348 349 352 353 353
324 324 328 339 347 346 348 349 348 348 347 345 345 347 349 347 346 349 344 344 342 341 340 338 335 332 332 333 331 332 333 335 337 338 338 339 338 340 346 348 349 351 353
322 322 325 330 336 346 346 348 346 346 346 346 344 347 349 350 351 347 347 344 343 341 340 339 335 333 331 333 334 333 334 337 340 341 339 340 339 340 339 344 348 348 349
323 324 324 329 333 344 345 345 344 342 343 342 341 341 349 351 350 348 347 344 343 342 339 335 332 333 333 332 336 335 334 340 340 340 340 343 342 342 341 339 341 343 346
321 321 324 327 327 336 341 340 340 337 339 341 340 339 340 347 350 348 344 344 345 341 336 334 332 330 329 332 329 332 338 340 341 343 343 341 342 342 341 339 340 341 341
320 321 319 320 329 328 342 341 341 341 341 339 340 340 340 342 344 349 347 344 342 338 337 335 333 331 331 334 332 333 330 329 334 343 341 342 342 342 340 340 341 339 339
316 317 318 321 322 325 329 335 340 342 345 342 339 338 339 340 340 342 344 344 341 340 337 336 337 335 331 332 336 333 325 321 331 336 340 339 339 340 340 339 342 342 342
316 317 316 319 320 324 323 326 325 331 332 336 335 340 339 339 337 338 342 343 341 341 339 337 337 337 333 329 336 342 340 336 326 323 336 339 339 340 340 339 339 341 342
312 314 319 319 320 322 323 325 325 327 329 329 331 332 343 343 340 339 339 341 342 340 340 339 338 339 337 335 337 332 327 324 324 324 324 330 335 338 339 338 340 338 339
309 310 313 317 318 322 322 322 323 322 325 325 325 327 331 333 339 342 341 342 340 341 341 337 338 338 337 338 341 332 324 329 331 333 332 331 328 331 336 339 338 337 336

GFSSE_sfc_thetae_078.txt.gz
Theta_e
355 362 365 365 364 363 363 362 362 361 360 361 361 361 361 361 362 362 362 362 362 361 359 357 354 352 350 350 351 353 354 355 354 353 354 353 353 354 357 356 353 349 351
357 362 365 364 364 364 363 362 361 360 359 360 361 361 361 361 361 362 362 361 361 359 357 354 351 347 344 343 345 348 351 352 354 354 353 352 351 352 355 353 351 350 351
358 361 363 364 363 363 362 361 360 360 359 360 361 361 361 361 361 361 361 360 358 356 354 350 347 342 339 338 337 339 341 343 346 350 352 347 347 350 352 352 352 350 349
358 360 360 363 362 362 362 360 360 360 360 360 360 361 361 360 360 360 360 359 356 353 350 346 343 339 337 336 334 336 338 340 343 342 334 339 345 348 350 350 350 350 350
356 358 361 364 362 361 361 360 359 360 360 360 360 361 361 360 359 359 360 358 354 351 348 345 341 340 338 337 336 340 342 343 341 338 329 327 328 345 351 350 349 349 349
352 357 363 363 362 361 361 360 360 360 360 360 360 361 360 359 359 359 359 357 355 350 347 344 343 342 339 338 341 342 343 344 345 332 332 335 335 351 354 352 352 350 350
349 355 361 363 362 362 362 360 360 360 360 360 360 360 360 359 358 359 358 356 355 351 347 344 345 345 343 342 342 344 345 344 337 333 334 336 334 350 355 355 353 351 350
348 355 359 363 361 361 361 360 359 359 360 360 360 360 360 359 358 358 357 356 354 352 350 348 347 345 344 344 345 345 345 344 340 337 336 332 341 350 356 354 353 352 349
349 351 357 358 359 361 361 359 359 359 359 359 359 359 359 358 357 357 356 355 354 351 350 349 347 346 345 345 346 346 346 344 336 335 336 331 343 350 354 353 353 353 352
348 349 352 356 357 356 359 360 359 359 359 358 359 359 358 357 357 356 353 353 353 352 350 350 349 348 347 346 346 346 346 345 336 335 331 330 344 351 355 354 353 353 353
347 347 349 353 355 354 354 358 359 361 360 359 359 359 354 350 350 352 351 353 353 352 351 351 350 349 348 347 347 347 345 335 335 334 330 336 345 351 355 355 353 353 353
343 345 346 349 351 353 355 355 356 358 357 356 356 355 351 347 345 349 350 352 353 352 352 351 351 351 349 339 338 343 338 336 335 334 331 342 346 352 356 355 354 353 352
345 345 345 346 349 351 352 352 352 354 354 353 352 350 346 345 345 345 341 344 343 349 342 345 343 342 340 338 336 332 332 335 334 333 333 343 345 353 357 354 354 354 353
344 344 344 344 345 345 350 350 351 350 350 348 349 347 344 339 337 338 337 338 338 340 340 338 337 336 336 336 334 330 328 331 332 331 331 344 347 353 356 355 354 354 353
335 342 342 344 343 341 346 346 348 348 348 347 345 346 344 337 335 336 336 336 338 338 339 336 334 334 333 333 333 331 330 330 332 332 331 344 351 351 353 354 353 352 353
329 338 340 343 343 340 345 342 343 344 346 346 345 345 343 339 336 335 335 338 337 338 338 337 336 334 332 333 333 333 333 333 333 333 333 333 350 349 350 354 354 352 352
324 330 339 342 342 340 344 344 342 340 342 342 343 343 344 341 336 337 338 338 339 340 339 338 336 336 334 336 334 335 335 335 335 334 334 335 339 349 349 351 352 354 354
323 325 330 345 342 342 345 346 345 342 342 342 343 343 344 344 342 336 337 341 340 339 339 337 337 335 333 332 331 331 331 332 334 334 336 335 335 339 345 349 350 351 353
320 322 324 333 336 340 343 347 345 345 341 342 343 344 344 344 345 345 341 340 341 339 337 337 335 332 329 329 332 332 331 331 333 336 336 336 337 338 337 343 348 348 350
319 321 322 328 332 340 341 343 342 341 344 342 343 344 345 345 345 344 344 343 342 339 337 336 334 333 331 330 333 333 331 332 335 337 338 340 339 339 339 338 339 344 347
320 320 322 323 324 332 339 337 336 336 338 341 341 339 348 347 348 347 345 343 342 338 337 336 333 330 328 329 327 326 328 331 336 338 340 339 339 342 341 340 339 338 340
318 319 321 325 325 324 336 338 336 336 337 338 340 341 340 342 348 347 345 343 342 340 336 335 332 329 329 330 325 328 326 328 330 336 337 339 340 342 341 341 339 338 337
317 317 316 317 320 323 326 333 338 337 340 335 335 336 339 339 342 347 347 345 341 342 340 336 334 331 331 328 331 325 324 321 321 325 326 331 335 338 340 339 339 340 338
316 315 315 317 319 319 320 322 327 332 331 335 335 336 338 339 338 339 345 346 344 342 338 336 336 334 331 327 332 335 334 327 321 318 325 333 339 338 337 339 338 340 341
314 312 315 315 315 317 317 319 321 321 326 329 330 331 336 338 339 337 337 340 342 340 338 337 335 334 334 331 331 331 330 324 324 322 319 323 332 335 339 339 339 337 338
311 313 314 315 315 317 318 316 318 319 320 323 323 325 329 336 338 338 338 338 340 340 338 337 336 336 336 336 336 335 325 321 319 319 319 324 328 331 335 337 336 336 336

GFSSE_sfc_thetae_084.txt.gz
Theta_e
348 358 364 363 362 362 362 363 363 363 363 363 363 363 362 361 361 362 361 361 361 359 357 355 353 351 350 351 353 354 355 354 353 353 353 354 354 354 355 351 350 348 349
352 359 363 362 362 362 362 362 362 362 362 362 362 362 361 360 361 361 361 361 360 358 355 353 350 349 348 350 352 353 354 353 355 353 352 352 353 355 352 351 350 349 349
352 359 361 362 362 362 361 361 361 360 361 361 361 360 360 360 361 361 361 360 358 356 353 350 347 344 344 345 347 349 352 353 354 353 350 346 348 352 352 350 350 350 350
355 358 358 362 361 361 360 360 360 360 360 360 360 360 360 361 361 360 360 359 356 354 350 347 344 341 341 339 339 341 343 344 345 345 339 340 344 348 350 351 350 349 348
354 357 358 362 361 361 360 359 359 359 359 359 359 359 359 360 359 359 359 358 354 351 348 344 342 343 342 341 342 344 344 344 342 334 333 334 335 340 350 350 349 350 348
353 355 361 362 360 360 360 359 358 358 359 359 359 359 359 359 358 358 358 357 354 350 347 343 344 344 343 342 344 344 345 344 338 332 335 336 339 340 350 350 349 349 350
352 354 359 361 360 360 359 359 358 358 358 359 359 359 358 358 358 357 357 355 354 352 347 343 344 345 344 344 344 344 345 343 336 335 336 336 336 346 354 352 353 350 349
351 354 357 360 360 359 359 358 357 357 357 358 358 358 358 357 357 357 356 355 353 351 349 346 346 344 343 342 342 342 343 341 338 335 336 335 337 344 349 355 355 353 349
353 354 355 356 358 359 359 358 357 356 356 356 357 357 357 356 357 356 356 354 354 352 350 349 346 345 343 342 343 343 343 340 337 337 335 335 335 340 345 354 355 352 351
351 352 352 354 355 355 355 358 357 356 356 356 356 356 356 356 356 356 353 353 353 351 350 349 347 346 344 343 343 343 343 342 335 334 334 333 338 341 344 353 356 354 353
349 351 352 352 354 354 353 355 357 357 357 356 356 356 353 351 352 351 351 352 353 351 350 349 348 346 345 345 345 345 344 338 335 334 335 337 341 342 345 354 356 354 354
343 348 350 350 352 352 353 352 352 353 354 353 352 352 349 347 347 348 349 352 353 352 350 349 348 348 347 340 338 340 338 337 335 335 335 340 343 345 346 351 355 356 354
341 346 349 349 351 350 350 351 352 352 352 352 351 350 346 345 346 347 344 347 346 349 343 347 345 344 342 340 339 338 336 334 333 334 335 342 345 346 348 352 355 356 354
338 343 348 349 349 350 349 349 350 350 350 350 351 351 347 342 341 341 341 340 340 339 339 338 339 340 339 340 339 338 336 334 333 333 335 341 345 346 349 354 356 357 355
338 341 346 348 347 349 348 349 349 348 349 348 349 349 348 343 339 339 338 337 336 336 337 337 337 337 337 337 337 336 335 335 334 333 334 339 344 347 348 354 358 357 355
340 340 344 346 347 348 349 348 348 349 349 349 349 349 348 345 341 338 336 335 334 335 336 337 337 337 336 336 336 336 336 336 336 336 336 336 341 344 347 353 357 358 356
340 341 341 344 346 346 347 347 347 348 349 348 348 350 348 345 341 338 336 335 335 335 336 337 338 337 336 336 336 337 337 338 337 337 338 338 338 341 345 351 354 356 356
338 339 341 343 343 344 345 345 346 346 348 347 347 347 348 347 344 340 337 335 335 336 336 336 337 336 336 337 337 338 337 338 338 337 338 338 339 338 340 349 351 353 354
333 338 338 340 339 340 342 343 343 344 346 345 343 343 344 346 345 341 338 337 335 336 337 337 337 338 337 336 334 334 335 335 336 337 337 338 339 340 340 341 348 350 351
322 330 338 339 339 339 339 341 340 338 340 340 340 342 342 344 345 341 339 335 337 337 335 337 337 338 337 336 335 334 335 335 336 335 336 336 339 341 342 342 343 347 348
317 321 329 336 337 337 336 337 338 337 336 338 340 341 341 341 343 342 341 340 337 336 337 338 337 337 336 335 333 332 331 334 335 336 336 338 341 343 344 343 342 343 344
314 320 324 333 335 337 339 339 339 339 338 338 339 340 341 341 342 341 340 341 342 340 340 338 337 334 335 332 332 330 326 328 329 332 336 339 340 339 341 344 344 344 344
312 317 322 327 332 338 339 337 335 337 336 334 336 338 340 342 343 343 342 340 340 342 341 340 338 336 335 333 333 331 326 321 326 330 332 332 333 334 336 340 343 344 345
313 315 319 324 326 333 337 337 335 334 334 334 334 337 338 340 342 345 345 343 342 342 340 341 340 338 335 331 332 334 334 331 325 323 329 330 333 334 336 339 339 343 345
313 314 316 318 319 323 334 338 336 332 333 332 332 333 335 337 339 339 342 344 342 342 341 341 339 338 336 336 332 331 333 332 332 327 324 327 329 332 336 334 341 344 344
311 312 313 316 316 317 321 325 329 329 327 326 326 328 330 333 335 337 338 338 336 337 337 339 339 337 336 336 336 333 331 331 329 329 327 327 326 331 336 339 338 338 343

GFSSE_sfc_thetae_087.txt.gz
Theta_e
353 361 364 364 363 365 365 365 364 363 362 361 361 361 360 360 361 362 362 362 362 360 358 355 353 352 352 353 354 355 356 355 354 354 354 354 354 355 354 350 348 346 350
357 362 363 363 364 364 364 365 363 362 362 361 362 361 360 361 362 361 361 361 360 358 356 353 350 350 351 352 354 354 354 354 354 353 353 352 355 354 352 349 348 348 348
358 362 360 362 363 363 363 363 363 362 362 362 362 361 361 361 361 361 361 361 359 356 353 350 349 348 349 351 353 354 354 354 354 351 348 345 346 353 351 349 349 349 348
359 361 359 362 362 362 362 362 362 362 362 362 361 361 360 361 361 361 361 360 357 354 351 348 345 345 345 347 349 351 353 353 353 352 349 348 348 349 350 349 349 348 348
358 360 361 362 361 361 361 361 361 361 361 361 361 361 360 361 360 360 360 359 355 352 349 346 344 345 344 343 345 346 346 345 342 337 343 345 348 345 350 350 350 349 347
356 359 361 361 361 361 361 360 360 360 360 360 360 360 360 360 359 359 359 358 356 352 348 347 345 345 344 342 344 345 345 343 339 339 343 342 346 346 350 350 350 349 350
355 358 361 361 360 360 360 359 360 360 359 359 360 360 359 359 358 358 358 357 355 353 350 346 346 346 345 344 343 344 343 343 336 339 340 340 342 342 346 352 351 351 351
354 359 360 361 360 359 359 359 358 358 358 358 358 358 358 358 357 357 357 356 354 353 350 348 347 346 345 344 343 342 341 341 338 336 336 338 340 342 348 354 354 354 351
355 358 360 358 359 359 358 358 357 357 357 358 357 357 357 357 357 357 356 355 354 352 350 349 347 346 345 343 343 342 340 341 338 338 335 337 337 338 341 351 355 354 352
353 355 358 358 355 354 356 358 357 357 357 357 357 356 356 356 356 356 354 354 354 352 351 349 347 346 345 343 343 343 341 341 337 335 337 340 338 341 343 348 355 356 354
349 353 356 355 355 354 353 355 356 357 357 356 357 356 354 350 352 353 351 353 354 352 350 349 348 346 345 344 344 344 342 338 336 335 337 344 341 344 345 350 355 357 355
345 349 354 355 355 354 351 354 353 352 352 351 353 354 351 350 351 348 351 352 354 352 351 349 349 348 345 340 339 341 338 340 340 338 339 339 343 345 348 351 352 356 356
343 347 351 356 356 354 351 353 353 353 353 353 353 354 353 350 350 349 347 348 348 350 344 344 344 342 342 343 342 342 341 341 342 342 343 341 343 345 349 353 354 355 357
341 347 351 355 355 354 354 352 352 352 353 352 352 355 352 349 349 348 346 345 348 345 346 345 342 344 346 347 347 345 344 344 343 344 346 344 344 344 347 352 355 356 357
342 344 348 353 355 354 357 353 353 353 353 352 353 354 352 348 348 347 347 345 344 345 343 343 343 344 347 348 347 347 345 346 346 344 345 346 345 345 346 349 353 357 358
345 346 349 351 355 354 355 357 355 355 353 353 352 353 353 351 350 346 346 345 344 344 343 343 343 345 347 348 347 349 348 347 347 347 347 348 344 344 345 347 350 358 358
345 349 348 351 354 355 354 355 356 354 353 353 353 355 353 352 352 349 345 345 344 345 345 345 346 347 346 347 347 349 348 349 348 350 350 348 347 344 344 347 349 355 359
339 348 350 350 351 353 354 355 355 354 353 352 352 353 353 352 353 350 347 346 346 345 343 343 344 344 345 345 347 350 349 348 348 348 347 347 346 346 346 345 348 352 355
330 346 348 350 350 352 353 353 354 356 353 353 354 351 352 353 353 352 349 348 346 344 343 342 342 344 344 347 347 347 347 346 348 346 348 346 346 345 345 347 345 347 351
325 339 350 350 351 352 351 351 350 350 350 352 351 351 352 349 352 353 351 349 345 343 343 342 343 344 345 346 344 345 347 346 346 347 346 344 346 347 352 353 356 352 347
321 328 340 347 350 349 347 345 345 345 346 348 350 351 351 351 352 351 350 350 345 344 345 346 343 344 344 347 344 344 342 344 343 343 346 346 348 351 348 350 351 350 348
320 327 331 340 350 348 346 345 346 345 345 345 347 350 351 350 351 350 350 346 345 342 346 346 345 340 343 345 342 339 333 336 337 342 342 343 343 344 343 346 349 350 349
320 324 328 335 345 349 350 346 346 347 346 342 343 345 347 348 348 349 348 349 348 347 344 348 347 346 343 345 343 347 332 328 332 338 341 339 340 339 346 347 347 345 348
320 323 326 332 340 347 350 348 347 343 340 343 343 345 347 349 348 348 349 348 349 349 349 349 349 347 344 341 340 342 344 340 331 328 338 340 342 342 348 343 344 342 347
317 319 326 329 332 342 348 350 347 347 346 347 346 347 350 349 349 348 350 351 350 346 346 342 336 336 334 330 327 338 341 339 340 333 326 333 339 339 341 342 343 341 347
314 316 323 327 330 335 342 346 348 349 347 344 345 345 346 348 349 350 349 351 353 350 348 343 335 332 333 331 329 336 338 335 334 334 332 332 334 336 340 340 342 344 344

GFSSE_sfc_thetae_093.txt.gz
Theta_e
354 360 366 367 367 367 365 364 363 363 362 361 362 362 362 362 363 364 363 362 362 361 361 360 358 355 353 354 354 356 356 356 355 354 354 354 355 353 350 348 351 347 351
357 360 364 366 367 367 365 364 363 362 361 361 362 362 362 362 363 364 363 362 361 358 356 356 354 352 353 354 355 355 355 355 354 353 353 354 354 353 349 348 351 347 348
357 360 362 366 367 367 366 364 363 362 361 361 362 362 362 363 363 363 363 362 360 357 354 352 351 351 352 353 354 354 353 353 352 352 354 354 348 351 349 348 349 349 347
357 360 359 365 366 366 366 364 363 362 361 361 361 362 362 362 362 362 362 361 359 356 352 350 350 351 351 352 353 353 352 352 350 350 351 348 346 351 349 348 348 348 347
356 358 362 364 365 366 366 364 363 362 361 362 362 361 362 362 362 362 361 361 357 354 351 349 349 350 351 352 352 352 352 353 354 353 348 347 349 351 352 349 348 347 346
353 356 361 363 364 365 365 364 363 362 362 362 362 361 361 362 361 361 361 360 357 353 349 347 347 346 347 348 348 348 348 347 345 344 345 346 347 353 352 350 350 349 347
352 355 363 362 364 364 364 364 363 363 362 362 362 362 361 361 361 360 361 359 357 353 350 346 345 346 345 342 342 343 342 341 338 341 342 345 348 348 351 351 350 349 349
352 355 362 361 362 363 363 363 363 362 362 362 362 362 361 361 360 360 360 358 357 354 351 347 346 346 345 344 342 342 342 341 340 338 337 338 345 346 346 349 352 352 352
353 353 360 357 361 362 362 361 361 361 361 362 361 360 360 360 360 359 359 357 355 354 351 349 347 346 345 343 343 344 342 343 339 339 339 341 344 340 343 349 352 353 354
351 351 357 356 354 356 359 361 360 360 360 360 360 360 359 358 357 357 357 356 354 352 350 349 347 346 346 346 346 346 342 343 336 335 340 343 345 340 340 343 348 354 356
348 350 355 353 353 353 351 357 359 359 360 359 359 359 356 353 355 354 352 355 354 351 349 348 348 348 346 346 347 346 342 334 336 338 339 347 344 344 347 347 349 354 357
345 347 351 355 355 354 350 356 354 355 357 358 358 359 355 352 353 348 350 355 354 351 350 349 349 347 342 335 338 343 336 338 343 341 341 349 345 346 349 350 351 353 356
343 347 348 356 359 355 351 351 352 349 349 352 355 359 358 351 351 347 346 347 348 349 342 343 341 339 337 337 338 342 342 344 344 343 344 350 347 347 349 351 353 356 355
335 346 349 353 361 364 354 351 353 349 349 348 348 360 357 352 355 353 343 347 348 340 343 343 337 343 342 344 348 347 345 346 346 347 348 351 348 348 349 351 353 356 357
330 343 349 353 362 366 367 355 354 355 348 349 350 355 354 351 355 350 350 345 344 340 341 341 342 345 343 348 351 349 349 350 351 350 349 352 349 349 349 351 352 355 357
329 333 348 352 364 362 363 366 362 362 355 350 350 351 355 356 356 348 349 345 343 343 342 343 345 343 344 348 351 353 352 353 353 353 350 351 351 350 351 351 352 354 357
328 333 337 353 357 365 364 363 362 357 356 353 351 355 355 358 359 353 348 348 348 350 353 350 346 347 344 348 351 351 352 353 352 353 353 350 349 350 351 351 352 354 356
327 330 339 345 352 362 365 363 359 358 356 354 354 355 357 356 358 356 349 348 348 353 349 344 343 340 340 342 349 347 349 353 351 352 351 350 348 346 350 352 352 352 353
325 328 330 337 342 356 365 362 363 363 359 357 357 355 358 357 355 355 349 349 355 348 347 345 341 345 341 343 342 344 348 349 352 348 349 350 354 351 350 350 350 349 349
325 330 337 339 348 357 359 364 358 359 359 356 355 356 358 359 358 355 351 348 352 348 346 344 347 345 342 341 337 339 350 346 346 348 350 349 349 351 354 353 352 349 349
326 329 335 337 346 345 348 349 352 352 354 356 358 360 358 359 357 357 352 352 351 348 350 352 349 349 343 346 343 341 343 353 356 351 349 347 349 350 355 355 351 353 350
325 333 336 338 343 343 338 352 351 354 353 356 358 360 362 361 358 357 354 352 353 351 352 350 353 346 345 347 340 339 331 340 348 352 349 349 351 346 349 353 350 356 356
322 328 330 338 343 344 347 340 350 357 356 350 353 357 357 360 360 360 357 357 353 352 347 355 354 350 341 345 348 339 332 329 338 344 350 347 354 346 345 347 351 352 355
321 323 326 334 336 336 347 339 343 339 344 347 349 353 358 361 358 358 359 357 349 350 348 353 355 351 347 340 345 347 352 346 337 331 342 347 349 350 355 349 350 351 352
320 321 325 335 339 339 341 345 337 340 339 345 348 354 359 359 360 356 359 360 351 353 354 352 355 354 349 343 345 346 347 343 343 336 330 334 341 342 340 338 333 341 352
320 321 324 330 336 337 338 341 346 345 347 344 346 346 352 350 357 357 356 358 359 355 352 354 357 357 351 349 349 348 339 336 334 333 331 332 331 336 337 333 334 338 346

GFSSE_sfc_thetae_096.txt.gz
Theta_e
353 363 367 368 366 365 364 363 362 362 362 362 362 362 363 363 364 363 363 363 363 364 362 359 357 354 354 353 356 359 359 358 357 355 355 355 355 352 351 352 353 347 350
356 362 367 367 365 365 365 364 362 362 361 362 362 362 362 363 364 363 363 362 361 360 360 358 355 352 353 354 356 356 357 356 355 353 353 354 354 351 350 351 350 347 349
355 362 364 366 366 365 364 363 362 361 361 361 361 362 362 363 364 364 363 362 360 357 355 353 352 352 353 354 354 354 354 353 352 352 353 350 347 352 350 350 350 349 348
357 361 362 366 366 365 364 363 362 361 361 361 361 362 362 363 363 363 362 362 359 356 353 352 352 352 352 353 353 353 353 351 353 354 349 351 345 353 351 349 348 348 347
355 358 364 366 365 365 365 363 362 362 361 362 362 362 362 363 362 362 362 361 358 354 351 351 352 353 353 353 353 352 352 353 355 353 348 340 345 351 354 350 348 347 348
351 354 363 365 365 365 365 364 362 362 362 362 362 362 362 362 362 361 361 361 358 355 352 351 352 352 353 353 352 351 350 351 350 339 341 340 347 355 355 352 352 351 347
351 358 362 364 365 365 365 365 363 362 362 362 362 362 362 361 361 361 361 359 357 355 352 350 349 349 348 348 347 348 347 346 337 333 337 344 348 354 355 353 351 349 348
352 361 360 363 364 364 364 364 363 362 362 362 362 362 362 361 360 361 360 359 357 355 352 350 348 347 347 346 345 346 345 344 335 334 337 340 348 351 353 354 354 353 352
354 361 360 357 362 364 363 362 362 362 361 361 361 361 361 361 360 360 359 358 356 355 352 350 348 347 346 345 345 345 345 344 337 333 334 339 348 351 352 352 353 355 355
349 358 358 357 356 359 361 362 362 361 361 361 361 360 360 360 359 359 357 357 356 354 352 350 348 348 346 345 345 346 346 344 336 332 330 338 345 346 347 348 351 354 356
346 351 355 351 354 354 356 360 361 361 361 361 360 360 357 355 355 355 354 356 356 354 352 350 348 348 347 346 347 347 347 335 331 332 338 348 349 350 349 349 350 352 355
342 345 353 352 352 351 349 358 359 359 359 359 358 359 357 355 354 350 352 356 356 354 353 351 349 349 346 335 336 346 338 333 331 335 341 350 351 352 351 352 353 353 355
342 344 350 357 356 351 349 356 354 354 357 358 359 359 357 354 352 350 350 349 350 353 345 346 344 340 336 334 333 336 334 335 334 342 345 351 350 352 353 354 355 356 355
327 341 350 357 358 356 353 354 353 349 351 352 355 358 356 353 351 349 346 346 346 345 340 340 336 337 336 338 338 346 344 343 344 348 346 351 348 351 354 354 355 356 356
330 335 349 355 359 361 362 357 354 350 349 349 351 352 352 351 350 349 344 346 345 342 341 339 340 338 340 342 346 348 346 348 348 349 349 352 350 351 354 355 356 356 357
336 339 344 358 362 363 359 363 370 358 351 350 348 348 351 352 348 348 350 344 346 339 341 339 341 344 344 343 348 351 351 352 353 352 350 349 352 351 352 354 356 357 358
333 339 343 346 365 362 363 362 364 365 357 355 349 350 350 350 351 350 346 348 343 343 342 342 344 348 345 347 347 353 353 353 352 353 353 350 349 351 352 353 355 356 357
335 336 339 338 352 363 362 363 360 360 358 355 351 351 352 349 354 354 349 345 348 351 349 348 344 343 342 341 344 348 348 349 351 354 352 350 348 348 349 353 353 354 355
337 333 337 341 339 349 362 362 363 361 359 356 355 350 351 350 351 354 347 347 350 349 349 344 344 342 339 341 341 347 349 349 352 348 349 350 351 346 348 351 351 351 352
334 332 332 336 340 346 345 360 362 361 358 358 356 351 353 352 350 350 348 346 346 343 340 343 341 341 338 340 337 336 343 345 349 349 349 348 349 351 349 350 347 347 349
333 336 339 342 347 344 342 347 354 353 356 356 356 356 356 353 352 349 346 344 347 341 340 340 340 338 337 340 339 339 340 348 345 346 351 348 347 349 349 351 351 348 350
331 336 337 340 342 346 343 341 349 352 353 355 357 358 356 355 353 352 347 347 343 342 341 340 338 335 337 338 333 332 329 331 338 347 348 347 345 347 347 350 347 345 350
330 333 331 339 339 346 346 343 340 341 349 351 352 353 355 355 356 354 353 347 347 346 342 343 343 339 334 339 337 334 328 323 333 345 345 344 342 346 345 343 345 346 348
326 329 332 339 342 338 342 337 337 332 331 341 349 351 353 357 355 354 354 353 347 348 346 346 346 345 343 336 340 340 339 344 332 330 341 342 344 348 346 346 341 336 331
324 324 332 339 340 338 341 340 334 330 328 333 334 340 350 356 355 354 354 354 351 349 350 347 348 347 346 338 337 335 337 344 342 333 326 335 341 341 341 338 336 335 335
320 322 328 332 335 341 337 336 337 336 335 333 332 336 336 349 352 352 354 354 353 351 347 345 346 349 346 342 339 340 339 337 335 333 330 329 330 335 338 337 334 333 337

GFSSE_sfc_thetae_102.txt.gz
Theta_e
356 361 365 365 363 362 362 361 362 361 361 362 362 362 362 362 363 363 363 363 363 362 359 356 354 354 355 355 355 357 358 358 357 354 352 353 352 352 355 351 348 346 349
359 361 364 364 363 363 362 362 362 360 361 361 362 362 361 361 362 363 363 363 362 360 358 355 352 354 355 355 355 355 355 356 357 356 353 350 352 352 353 349 349 347 347
358 360 362 363 363 362 362 361 361 360 360 361 362 362 361 361 361 361 362 362 362 359 356 353 353 354 354 354 353 353 353 355 354 355 353 346 344 351 350 349 349 349 348
359 359 360 363 362 362 361 361 361 360 360 360 361 362 362 361 361 361 360 360 357 355 353 352 353 353 353 352 352 351 352 352 353 353 349 348 345 350 350 349 349 349 349
357 358 360 363 362 362 361 360 360 360 360 360 361 362 362 362 361 360 360 359 356 353 351 351 352 353 353 353 352 352 352 352 350 344 338 340 343 350 351 350 350 350 349
356 359 362 362 362 362 361 361 360 360 360 360 361 361 361 361 361 360 360 358 356 353 351 352 352 353 353 353 353 352 351 349 347 330 329 342 341 353 354 352 351 349 348
355 359 361 362 362 362 361 361 360 360 360 360 361 361 360 360 360 360 359 358 356 354 351 350 351 353 354 353 351 349 346 345 335 329 328 334 342 353 356 356 354 351 349
355 358 360 363 362 361 361 360 360 359 359 360 360 360 360 359 359 359 359 358 356 354 352 350 350 348 347 346 345 343 343 344 334 329 329 330 345 353 356 357 356 354 351
356 355 358 360 362 362 361 360 359 359 359 359 359 359 359 359 359 359 358 357 355 353 352 350 348 346 344 343 342 341 342 344 333 330 330 330 348 353 357 356 355 355 354
353 353 355 357 360 359 358 360 359 359 359 358 358 358 358 358 358 358 355 356 355 354 352 350 348 346 344 343 342 343 345 345 334 331 328 326 348 353 358 357 356 355 355
351 351 353 355 356 356 357 359 360 361 360 359 359 358 355 354 354 354 354 356 356 354 352 350 349 347 345 345 345 345 346 334 330 328 326 336 345 352 356 355 354 354 355
347 348 350 352 353 354 358 357 357 357 357 356 355 354 352 350 351 353 353 356 355 354 352 351 349 348 346 333 332 344 336 333 331 328 326 340 350 352 355 353 351 351 351
349 348 348 349 350 351 352 355 355 356 355 355 354 353 351 350 350 350 348 350 349 352 344 346 344 341 336 332 328 324 328 333 331 329 331 342 350 352 355 352 350 351 351
346 348 347 347 347 349 351 352 352 353 352 351 352 352 349 348 345 345 345 344 345 344 341 340 338 336 334 331 327 324 325 329 330 329 330 343 349 352 356 356 354 354 353
319 338 345 346 345 346 345 350 350 350 352 352 352 352 350 347 344 344 343 343 342 341 340 336 335 334 332 331 328 326 326 329 331 331 335 349 350 351 355 358 356 356 355
322 332 343 342 342 342 342 347 347 348 350 350 351 351 351 349 347 344 341 341 340 340 339 335 332 328 328 327 325 327 329 332 334 337 338 345 350 350 352 356 357 357 357
317 323 338 345 345 342 341 345 344 343 346 347 349 350 352 351 348 346 342 340 340 339 336 335 329 328 327 328 328 329 330 334 340 340 341 338 344 349 349 352 355 357 357
315 321 323 340 341 341 343 350 351 346 342 343 344 346 349 351 350 344 344 341 340 339 337 335 332 327 328 332 330 330 332 338 341 342 343 343 343 344 348 351 353 355 356
313 319 321 323 322 326 330 333 345 352 351 347 344 341 343 347 349 347 344 343 340 337 337 334 333 331 327 329 332 333 334 337 342 344 343 344 344 343 343 348 351 351 353
317 318 320 326 328 327 325 325 333 347 347 348 346 345 343 344 345 344 344 342 340 340 337 335 333 332 330 330 332 332 332 336 338 340 343 345 345 345 343 343 346 347 350
319 318 318 320 322 321 320 318 319 328 341 346 347 348 346 343 344 342 342 342 339 339 339 337 336 332 332 328 327 327 327 331 334 339 341 341 343 344 342 341 343 344 345
314 314 315 316 315 319 321 323 324 326 327 334 341 345 349 344 344 343 342 340 341 339 338 337 335 334 329 329 329 322 319 326 327 334 337 337 338 339 339 342 340 340 339
312 313 316 315 316 318 320 319 318 318 318 319 323 333 341 349 345 345 345 342 340 341 340 338 336 334 331 328 329 325 318 318 318 323 332 336 337 338 339 339 341 341 340
310 311 310 317 319 318 318 317 318 317 316 319 320 323 324 327 336 344 345 344 341 341 340 340 336 334 333 330 326 331 326 322 317 316 330 331 336 337 337 337 339 340 339
308 308 315 317 314 315 318 320 317 315 317 318 319 321 322 322 324 328 337 342 344 341 341 339 337 334 335 332 332 330 330 329 330 324 319 328 332 335 337 337 338 338 337
307 308 311 312 314 315 319 314 314 314 314 315 318 318 320 323 325 325 326 331 334 341 342 340 339 336 335 334 334 332 329 327 326 329 324 323 328 331 336 336 334 333 332

GFSSE_sfc_thetae_105.txt.gz
Theta_e
354 359 361 363 362 361 361 361 362 362 362 362 362 362 361 361 362 362 363 363 362 361 358 355 354 354 355 355 356 356 357 356 353 352 353 353 352 352 351 349 349 346 349
356 359 361 363 362 361 361 361 361 360 361 361 361 362 361 361 362 362 362 362 362 358 356 353 353 353 354 354 354 354 355 356 357 353 351 352 352 354 350 349 348 345 347
356 359 361 362 362 362 361 360 360 360 360 360 360 361 361 361 362 361 361 361 359 357 355 352 353 354 354 354 353 353 353 355 357 355 351 344 345 349 348 349 349 348 345
357 358 359 362 361 361 361 360 359 360 360 360 360 360 360 360 361 361 361 361 359 357 354 352 353 353 353 353 352 352 353 352 353 352 348 347 344 350 349 349 349 348 347
355 357 359 362 361 361 360 360 359 359 359 360 360 360 359 360 360 359 359 359 356 354 352 352 353 353 353 352 352 353 353 353 351 346 338 340 344 349 350 350 350 350 348
354 356 361 361 361 360 361 360 359 359 359 360 360 360 359 359 360 359 359 358 356 352 351 351 352 353 353 352 352 351 351 349 344 329 328 332 342 350 352 351 351 351 348
353 356 359 361 361 361 360 360 359 359 359 359 360 360 359 360 359 359 359 357 355 354 352 351 352 354 354 353 352 350 348 344 333 327 325 334 340 351 355 353 353 350 348
353 355 357 361 361 360 360 360 359 358 358 359 359 359 360 359 359 359 358 357 355 354 353 351 352 352 352 351 350 347 345 344 333 326 325 327 342 350 353 357 356 353 349
354 354 355 356 359 360 360 359 359 358 358 358 358 358 358 358 358 358 357 356 355 354 353 352 350 349 348 347 346 345 343 343 329 328 329 326 338 351 353 357 357 355 353
351 352 353 354 355 356 356 359 359 358 358 357 358 357 357 357 357 357 355 355 355 353 352 350 349 348 346 344 344 343 343 344 332 329 328 326 341 351 354 358 357 356 355
349 348 351 353 354 354 354 356 358 359 359 358 357 357 354 351 352 353 354 354 355 354 352 351 349 347 346 345 344 344 345 332 329 327 325 333 342 349 354 357 357 356 356
345 347 349 351 353 353 354 353 353 354 354 354 353 352 350 348 348 351 352 355 355 355 353 351 350 348 346 332 332 343 334 331 329 328 326 337 342 344 352 355 356 355 355
346 347 349 350 352 351 352 353 354 354 354 353 351 351 348 348 346 347 346 348 346 351 344 345 342 340 335 332 328 325 326 330 329 329 330 341 344 347 355 355 355 354 352
345 346 347 348 349 349 349 352 351 351 352 352 352 351 347 345 343 344 343 342 342 341 340 337 336 335 333 331 328 324 322 323 326 330 330 342 344 348 355 355 355 352 351
345 346 345 346 346 347 345 348 348 350 350 349 351 351 349 346 344 345 344 343 342 342 340 336 335 333 332 330 329 326 325 323 326 330 330 341 345 346 352 355 358 356 355
332 342 346 345 345 344 341 345 346 347 349 349 350 350 350 347 344 343 343 343 342 341 341 339 335 332 329 327 325 325 325 325 326 329 332 335 346 351 350 355 358 359 358
322 327 338 342 342 342 341 344 344 344 346 346 347 348 349 348 345 344 343 342 343 341 338 335 333 330 328 327 327 327 327 326 327 333 337 339 339 350 351 353 355 357 358
320 332 337 343 340 339 340 342 342 343 341 343 344 346 349 349 349 345 345 342 342 340 338 336 336 332 329 329 328 327 328 329 329 332 337 341 340 340 347 351 352 354 356
318 323 330 337 338 337 339 344 347 343 340 340 342 339 343 348 350 348 345 345 341 338 337 337 335 332 332 327 327 329 329 328 331 335 338 340 341 343 342 346 349 350 353
316 317 321 323 324 326 326 327 334 343 347 347 345 342 342 343 344 343 346 344 340 337 335 335 334 332 332 331 327 327 328 330 332 333 336 341 342 342 343 342 342 347 350
315 319 320 319 318 319 316 315 317 320 329 338 344 346 345 343 342 341 341 340 337 337 337 335 334 331 330 327 324 324 326 329 329 333 336 337 339 343 343 341 341 342 344
316 316 317 319 319 318 320 321 320 322 324 326 328 329 335 342 342 341 340 339 339 339 338 336 334 334 333 331 328 324 323 325 326 331 332 335 336 339 339 340 340 340 342
313 312 313 313 314 316 318 317 315 315 314 315 316 321 325 331 336 339 340 339 338 338 338 339 337 334 333 333 331 327 316 319 325 322 328 332 332 335 337 339 339 340 338
310 312 312 311 314 316 315 314 313 311 311 314 316 319 319 322 324 330 331 333 336 338 338 339 339 336 335 331 333 331 331 323 318 316 323 326 331 331 334 337 337 338 338
309 308 309 316 314 313 315 315 315 313 313 313 314 316 317 319 321 324 325 326 327 332 338 338 338 336 335 334 333 332 328 329 324 320 321 323 329 331 334 335 336 338 339
304 308 313 312 311 312 315 315 313 312 311 310 312 314 315 319 320 323 324 323 323 324 326 332 338 337 336 336 335 333 331 326 326 325 324 326 325 328 331 333 335 337 339

GFSSE_sfc_thetae_108.txt.gz
Theta_e
352 357 363 363 363 363 363 363 362 363 363 363 363 363 362 360 361 362 362 362 362 362 359 356 356 356 356 355 356 355 356 355 354 353 354 353 353 353 351 348 350 347 349
355 356 362 362 362 363 363 362 362 362 361 362 362 362 361 361 362 362 362 361 361 359 356 354 354 355 354 355 356 356 355 355 355 353 353 352 352 352 349 348 348 347 348
355 356 358 362 362 362 362 361 361 360 361 361 361 361 361 361 362 362 361 361 360 357 354 353 353 354 354 354 354 355 355 356 357 355 350 348 349 354 348 349 348 347 347
356 356 358 362 361 362 361 360 360 360 360 360 360 361 361 361 361 361 361 360 358 357 353 352 354 354 354 353 353 354 355 355 354 354 351 347 346 350 349 349 349 348 345
355 357 357 361 361 361 360 360 359 359 359 359 360 361 361 361 360 360 361 360 358 356 352 352 353 355 355 354 354 354 355 355 353 350 346 346 348 348 350 350 350 349 347
354 356 360 361 361 361 360 360 359 359 359 359 359 360 360 359 359 359 360 359 357 354 352 353 355 355 355 354 354 353 353 353 348 336 333 334 340 349 353 351 351 351 349
352 355 358 361 361 360 360 359 359 358 359 359 359 359 359 359 359 358 358 357 356 355 353 352 353 354 355 354 353 352 351 348 340 332 332 335 344 349 356 353 353 351 350
352 356 356 360 360 360 360 359 358 357 358 359 359 359 359 359 359 358 358 356 355 354 354 353 354 354 353 353 352 351 350 347 337 332 330 331 343 350 354 355 356 355 350
353 354 354 356 358 360 359 358 358 357 357 358 358 358 359 358 358 358 358 357 355 354 354 353 353 352 352 351 350 348 347 345 335 331 329 330 336 350 354 356 357 356 353
350 351 351 353 354 355 355 359 358 357 357 357 357 357 358 357 358 358 355 355 355 354 353 353 352 350 348 348 347 346 346 345 337 333 332 331 338 343 352 357 358 357 356
348 347 348 348 350 351 352 356 358 358 358 357 357 357 354 352 353 354 354 353 356 355 353 352 350 348 348 346 345 345 345 336 333 332 330 333 339 341 353 357 358 357 356
344 346 349 349 349 349 352 351 352 354 354 354 353 353 351 349 349 351 352 354 354 355 354 352 351 350 348 338 333 338 338 336 334 332 331 336 341 341 348 357 357 358 357
344 346 349 349 350 349 349 350 351 351 352 351 351 351 349 348 349 350 348 348 350 350 349 347 345 344 340 337 334 331 329 328 331 333 332 340 343 343 347 352 355 356 356
343 345 347 349 349 349 350 351 350 350 352 351 352 349 347 346 346 347 347 347 346 346 345 344 341 340 338 337 334 333 331 328 327 329 331 340 344 346 347 351 357 357 355
342 344 344 348 348 349 347 351 349 348 350 349 350 352 350 345 344 345 345 345 345 345 344 342 341 339 336 335 334 333 331 330 328 328 330 338 344 346 348 352 355 357 356
343 344 345 345 347 347 346 348 349 349 349 348 349 350 349 348 345 344 344 344 343 343 344 343 340 339 336 334 333 331 330 329 329 328 328 331 342 345 348 353 354 356 358
332 340 343 343 345 344 345 346 347 347 349 350 349 350 350 349 346 345 343 342 344 344 342 341 340 337 334 333 332 332 331 329 328 328 329 333 337 345 348 352 355 356 358
318 326 332 345 341 340 341 345 345 346 347 347 348 349 349 350 349 346 344 343 345 344 342 340 339 336 335 334 333 331 331 331 331 331 331 334 338 341 345 351 353 354 356
321 330 334 338 339 339 340 343 343 344 343 343 345 345 347 349 350 349 348 347 346 342 340 340 340 338 338 335 332 333 332 331 331 332 333 336 340 343 345 345 348 350 352
322 328 336 337 338 338 341 341 344 342 341 341 341 342 343 344 346 349 349 348 345 341 339 338 338 338 336 337 335 333 331 331 332 333 333 335 339 344 346 347 346 348 349
317 323 329 329 331 332 327 325 329 336 339 343 345 346 346 343 343 342 342 343 343 340 342 338 337 335 336 335 331 332 332 331 332 333 335 336 338 340 345 346 345 346 346
316 320 320 323 321 319 319 318 319 324 326 327 331 332 337 341 342 341 340 339 340 340 340 340 339 338 337 334 331 330 326 332 329 331 334 335 337 339 340 344 346 345 346
314 316 316 316 317 318 321 318 316 315 316 317 319 322 326 331 334 337 338 339 339 338 338 339 339 337 335 338 334 330 323 321 327 330 332 333 335 336 338 340 341 343 344
314 314 315 315 315 317 318 315 313 311 311 313 315 318 321 324 326 329 330 330 333 336 336 337 340 339 337 330 336 334 334 332 327 324 326 329 333 333 337 337 339 341 343
310 310 311 312 315 316 315 314 313 313 313 315 316 317 318 321 324 326 327 327 326 326 332 336 337 338 338 334 332 333 333 330 330 326 323 327 331 334 336 335 337 340 341
306 308 312 314 314 314 315 315 314 314 313 313 314 315 317 319 322 325 326 324 325 325 325 327 330 334 335 335 335 335 332 330 326 325 324 326 326 330 332 336 337 338 341

GFSSE_sfc_thetae_111.txt.gz
Theta_e
354 361 363 364 364 364 364 365 364 363 362 360 360 361 361 361 361 362 363 363 363 363 359 358 357 358 357 356 355 355 356 356 355 355 355 354 353 352 350 350 349 345 348
358 361 362 363 363 364 364 364 364 363 363 363 362 362 361 361 362 362 362 363 363 360 357 357 357 356 354 355 354 354 354 354 356 354 353 353 353 351 350 350 348 347 349
358 362 360 362 363 363 363 363 362 362 362 363 362 361 361 361 362 362 362 362 361 358 355 354 355 355 355 355 355 355 354 355 355 352 351 350 351 350 348 348 347 347 347
359 360 358 362 362 363 362 361 361 362 362 362 362 361 361 362 362 362 361 361 358 356 354 353 354 354 354 354 354 355 355 355 355 353 353 349 347 351 348 348 348 346 345
358 359 359 362 362 362 361 360 360 360 360 361 361 361 361 361 361 361 361 360 358 356 353 353 354 356 355 354 355 355 355 355 354 352 351 352 354 350 350 350 350 348 345
357 358 360 361 361 361 361 360 360 360 360 361 361 361 361 361 360 360 360 360 358 356 352 353 355 356 356 355 355 354 354 353 351 346 343 341 341 354 352 351 350 350 348
356 357 359 360 361 361 361 360 359 359 359 360 360 361 360 360 360 360 359 358 356 354 353 353 354 356 356 355 354 353 353 351 347 342 338 341 346 348 354 353 352 352 351
356 357 357 360 360 360 360 359 358 358 358 359 359 359 359 358 358 358 358 357 357 356 355 355 355 355 354 354 353 352 352 349 344 341 337 338 348 348 353 356 355 354 352
357 356 356 356 359 360 359 358 358 357 357 357 357 357 358 358 358 358 358 357 356 355 354 354 354 354 353 353 352 352 352 348 343 338 334 335 342 346 352 357 356 356 354
355 354 355 356 353 354 357 359 358 357 357 357 357 357 357 357 358 358 355 356 354 354 353 353 353 352 351 350 350 349 348 344 338 335 334 335 336 339 344 356 358 358 357
352 354 354 352 354 354 354 355 357 357 358 357 357 358 355 353 356 357 356 354 354 353 352 351 351 350 349 348 347 346 344 334 335 333 333 341 337 339 343 354 358 358 358
348 351 353 353 353 353 351 356 355 354 354 354 354 355 352 354 354 352 354 355 354 354 354 353 352 351 348 339 338 337 333 335 335 335 334 341 340 340 344 349 358 358 358
348 351 352 355 355 352 350 353 354 354 355 356 356 357 356 353 353 351 351 351 353 353 349 350 349 346 344 343 339 338 336 335 332 332 334 341 342 342 345 349 352 356 358
347 350 353 355 355 355 352 352 353 352 354 354 355 357 355 353 353 353 351 351 352 350 350 350 347 348 347 345 343 340 339 337 333 333 334 341 342 344 345 350 352 353 356
346 349 352 356 356 356 356 354 354 353 353 354 355 356 355 352 352 352 352 352 352 352 351 351 350 349 348 347 344 342 339 339 338 335 333 341 341 343 347 350 354 354 357
349 349 352 354 357 358 357 357 356 356 356 356 356 357 358 355 354 353 352 351 351 351 351 351 351 351 350 349 348 346 344 342 341 339 336 335 340 342 345 349 353 356 357
351 353 353 353 356 357 357 357 357 356 356 355 356 359 358 356 352 354 353 353 353 354 354 353 352 352 350 349 348 348 347 346 344 343 341 340 339 341 344 347 351 356 358
349 351 355 353 353 355 356 356 356 356 356 356 356 357 357 356 355 353 354 354 355 355 353 352 351 349 349 348 347 347 347 347 346 345 344 344 342 341 342 348 349 353 356
329 335 348 355 353 354 355 354 356 358 356 356 356 356 357 356 356 356 355 355 358 354 353 353 352 350 348 348 347 347 347 345 346 344 345 345 346 344 342 342 348 349 352
330 337 342 347 351 352 352 353 353 354 355 355 355 355 357 357 357 357 356 357 356 353 351 350 349 350 348 347 346 345 346 346 345 345 345 346 346 345 346 347 345 345 348
330 337 344 345 349 348 347 348 348 348 350 350 352 354 353 353 353 354 353 352 352 349 349 349 347 344 343 347 342 341 343 346 345 344 345 344 345 345 346 347 348 347 346
333 337 344 346 348 349 348 344 347 348 349 352 354 356 356 353 350 348 347 344 345 342 344 343 343 338 338 343 337 338 329 336 341 344 344 343 344 343 343 346 347 352 350
330 335 339 343 344 342 340 334 334 334 335 336 337 337 340 342 343 343 341 342 342 341 334 338 338 339 333 336 342 335 328 326 334 340 342 341 344 342 344 347 348 349 351
326 329 332 333 335 335 336 335 340 331 327 328 329 330 333 334 334 337 339 339 340 335 336 334 334 336 337 331 334 338 339 337 328 326 336 340 341 340 344 343 344 346 348
322 323 327 328 329 331 333 335 329 331 327 328 328 332 334 334 335 335 337 337 336 333 335 336 336 336 334 333 331 331 335 335 337 331 325 329 337 340 340 342 341 342 346
320 322 325 327 329 330 330 330 333 334 331 326 328 326 327 328 331 334 335 336 335 333 333 332 334 335 335 335 334 335 332 330 328 332 327 329 330 335 338 340 341 341 343

GFSSE_sfc_thetae_114.txt.gz
Theta_e
354 363 365 365 364 364 366 366 364 363 362 361 361 362 361 360 362 363 363 363 364 362 360 360 360 359 357 357 355 355 356 356 356 355 355 354 352 351 350 349 348 344 349
356 364 363 365 365 365 366 365 364 362 361 361 362 362 361 361 363 363 363 363 363 360 358 358 357 356 355 354 354 355 356 356 355 355 354 354 353 351 349 349 348 348 349
357 364 362 364 365 365 365 365 363 362 361 362 362 362 361 362 363 363 363 364 362 359 357 357 356 354 354 354 354 354 354 355 354 353 353 352 350 349 348 347 345 347 348
360 364 361 363 364 364 364 363 362 363 362 362 361 361 361 362 363 362 362 362 360 357 354 354 355 355 355 354 354 354 354 353 353 351 352 349 348 352 349 348 347 346 346
360 362 362 363 363 363 362 363 362 362 362 362 362 362 362 362 362 362 362 360 358 356 353 353 354 355 354 354 354 355 355 355 355 355 352 354 356 351 350 350 350 348 346
357 359 362 362 362 362 362 362 362 362 362 362 362 362 362 362 361 361 361 359 358 356 353 354 355 355 355 354 354 354 354 353 352 351 350 346 345 352 352 351 351 349 347
355 358 361 362 362 362 362 362 361 361 361 361 362 362 362 361 360 361 360 359 358 356 353 354 355 356 356 355 353 352 351 351 351 349 346 346 348 352 353 353 352 352 351
355 359 359 361 361 361 361 360 359 359 360 361 361 361 361 360 360 360 360 358 357 355 353 353 354 354 354 354 352 351 350 350 349 347 346 343 345 345 350 356 354 353 353
357 357 357 355 360 360 360 359 359 358 359 359 359 359 359 359 359 359 358 356 354 353 352 352 352 352 352 351 351 351 350 349 346 342 342 340 338 339 351 355 356 355 355
355 355 355 353 352 355 358 359 359 358 358 358 358 358 358 358 358 357 356 355 354 352 351 351 351 350 350 349 349 348 346 346 341 338 337 338 338 338 341 348 358 357 358
350 353 353 350 350 352 353 356 358 358 358 358 357 358 355 350 353 356 354 356 355 354 352 351 350 349 347 348 348 345 343 335 335 335 334 343 339 340 342 347 354 358 358
347 350 352 352 351 351 349 356 354 353 353 352 352 355 350 350 353 351 355 356 354 354 354 353 352 350 347 337 340 342 334 332 334 334 334 344 342 342 343 348 350 357 359
347 350 352 355 356 353 351 353 351 352 352 354 355 357 353 350 352 350 348 351 352 352 348 351 350 348 342 340 338 337 336 335 334 332 335 344 344 343 345 350 351 351 358
347 349 353 357 357 356 352 352 353 353 353 354 356 361 357 355 355 353 350 350 352 350 350 349 346 348 347 347 345 342 340 338 335 333 336 344 343 344 344 349 352 353 353
348 351 353 356 359 358 356 353 354 354 354 356 357 359 357 355 355 356 355 355 354 354 353 354 354 354 354 354 352 350 348 347 344 341 338 347 346 345 345 348 351 354 355
352 353 354 356 360 360 358 359 356 357 356 356 357 358 360 357 357 356 356 355 355 354 354 353 353 354 353 353 353 354 353 353 351 350 346 344 345 344 345 345 348 353 357
353 356 356 357 360 362 361 360 360 358 357 356 357 360 361 362 361 361 356 355 354 356 357 357 356 356 354 353 353 353 353 353 351 351 350 348 347 344 344 345 347 349 354
338 355 359 356 357 362 362 361 360 359 359 358 358 359 362 362 362 360 355 355 357 358 357 357 356 354 353 353 353 354 354 354 353 352 351 349 346 346 347 346 347 350 352
329 348 355 361 358 360 363 361 362 363 360 359 359 359 361 360 359 358 356 358 362 359 358 357 356 355 353 352 351 351 353 353 354 352 353 352 352 349 346 348 348 349 351
328 335 348 355 361 363 361 362 360 359 359 360 359 358 359 357 359 359 359 360 360 358 353 352 353 352 349 349 347 345 348 349 350 350 351 351 352 352 352 350 349 347 346
328 336 341 345 356 359 357 354 354 353 356 357 358 359 360 360 361 360 359 359 359 350 349 350 348 345 342 343 341 341 340 347 349 348 350 349 349 349 351 351 350 348 346
331 337 345 349 354 355 353 354 353 354 356 356 356 358 360 359 359 360 358 348 347 340 347 345 344 336 333 336 334 333 327 330 335 342 345 347 348 347 347 349 351 352 352
328 335 341 352 353 354 356 355 354 356 355 353 355 357 359 360 357 350 346 342 342 341 331 340 338 336 327 329 336 330 322 320 325 331 341 342 347 346 347 348 349 350 354
326 332 342 348 352 354 353 349 351 346 344 347 350 348 345 344 341 341 341 339 342 334 339 334 333 333 332 326 327 330 334 332 324 322 329 334 342 345 349 346 346 348 351
325 332 338 344 347 348 349 350 348 347 342 336 333 339 344 341 338 334 337 337 338 335 338 337 335 335 330 326 324 324 331 329 332 328 324 327 331 333 335 341 343 346 353
324 328 333 338 339 342 340 340 338 334 334 330 330 328 327 328 331 336 334 338 339 339 336 335 337 336 334 331 327 328 325 323 323 323 323 327 328 331 333 335 339 341 344

GFSSE_sfc_thetae_117.txt.gz
Theta_e
353 360 366 366 366 366 368 366 364 364 362 361 360 361 361 362 363 363 363 363 362 361 362 362 360 358 357 354 354 356 356 356 356 355 354 352 352 351 349 347 348 345 350
358 361 365 366 366 366 368 365 364 363 361 361 362 362 361 362 363 364 364 363 362 360 359 360 359 357 356 354 354 356 356 356 356 354 354 354 353 351 348 348 350 348 349
359 363 362 366 366 367 366 365 363 362 361 361 363 362 361 363 363 363 364 363 360 359 359 357 355 355 354 353 353 354 354 354 353 354 355 354 346 350 348 346 345 347 348
359 363 361 365 365 366 366 364 362 362 362 362 362 362 362 363 363 363 363 362 360 357 356 356 354 354 354 353 353 353 352 351 351 352 352 347 348 350 349 347 346 345 345
358 360 364 364 365 365 365 364 362 362 362 362 362 362 363 363 363 362 362 361 358 356 353 354 354 354 354 354 354 353 353 354 356 356 352 350 353 351 351 349 349 347 344
355 358 362 363 364 364 365 364 363 363 362 362 362 362 363 363 362 362 362 360 357 354 352 353 353 354 353 352 353 353 353 353 354 354 346 346 345 353 352 351 351 349 345
352 359 359 362 363 364 364 364 363 363 362 362 362 362 362 362 361 361 360 358 357 355 352 352 353 354 353 352 351 351 351 351 349 349 347 345 352 356 354 352 351 351 350
351 360 357 362 362 362 363 362 362 361 362 362 362 362 362 361 361 360 359 358 358 355 353 353 354 354 353 353 351 350 349 349 347 347 347 345 350 350 352 355 354 353 353
354 357 356 355 360 361 361 361 361 361 361 361 361 361 361 360 360 359 358 358 356 355 353 353 354 353 353 352 352 351 350 350 346 342 342 343 347 349 351 353 356 355 355
352 355 354 353 353 354 357 360 360 360 360 360 360 360 360 359 358 358 358 357 355 353 352 352 352 352 351 351 351 350 350 349 343 339 338 339 347 342 344 352 356 358 357
348 353 352 350 349 349 350 355 358 357 358 359 359 359 356 351 354 355 353 357 356 353 352 351 351 352 351 351 351 351 348 338 336 337 336 348 348 342 342 349 351 354 359
345 349 349 349 349 349 348 355 352 351 351 351 351 355 351 349 351 347 353 358 356 355 354 354 354 352 348 337 338 347 340 333 331 334 334 350 348 346 346 348 351 351 357
346 348 349 351 355 350 348 354 349 351 350 350 351 356 354 347 350 348 351 353 354 353 347 350 349 347 342 340 338 341 339 336 334 334 337 351 349 349 349 350 351 352 352
346 348 350 352 355 357 350 352 350 350 351 351 352 359 356 350 353 349 344 345 352 346 350 348 346 349 347 346 344 342 340 339 337 335 338 350 348 349 349 350 351 351 352
346 348 350 355 359 361 361 352 353 354 352 354 355 358 356 353 358 354 353 349 349 349 348 349 349 351 350 352 352 350 349 348 347 344 343 352 348 347 349 349 350 352 353
339 351 353 354 362 359 360 365 356 357 356 355 355 356 361 359 364 355 356 354 353 352 351 351 351 353 352 353 351 352 352 353 353 355 350 350 350 347 347 349 349 350 353
334 347 355 357 360 363 360 360 360 356 355 354 354 362 361 363 363 364 354 354 353 357 356 356 356 356 354 354 356 353 353 353 352 355 353 351 348 348 346 347 349 350 351
330 334 351 355 358 362 364 362 358 358 358 356 357 357 360 362 363 365 357 355 356 359 357 358 357 353 353 353 351 349 348 352 355 358 355 355 352 348 349 347 348 349 350
334 334 337 358 358 361 367 364 365 369 361 359 359 358 364 360 360 361 356 356 364 358 358 356 351 353 348 349 346 346 349 349 351 347 353 356 359 357 354 352 348 348 349
331 334 337 354 360 363 363 365 362 360 360 360 359 358 361 360 359 361 355 366 364 363 355 350 356 352 348 347 342 342 347 346 348 348 349 349 351 356 357 358 357 350 347
330 338 340 345 359 361 357 354 354 351 354 354 355 361 360 360 359 360 357 360 360 359 357 353 350 351 343 344 337 336 338 343 345 343 346 349 349 349 352 355 357 355 351
332 334 341 344 350 356 355 359 351 351 348 351 352 364 358 360 360 360 361 358 361 349 355 350 350 340 335 336 329 328 325 328 331 336 338 342 347 348 346 350 353 355 356
327 336 336 343 352 357 357 354 355 357 354 350 350 354 358 360 359 360 361 356 351 348 337 351 345 346 330 330 341 325 321 318 325 331 336 335 339 334 343 347 350 352 356
325 332 333 346 355 355 358 358 357 351 345 344 349 349 356 360 360 359 352 346 350 339 346 341 338 340 339 327 326 327 335 329 321 321 329 333 337 336 341 341 346 349 352
325 327 336 349 353 356 359 357 350 352 346 351 345 356 356 355 348 340 341 341 346 339 343 347 346 345 332 329 324 323 330 324 329 325 321 324 330 333 338 339 337 339 346
323 330 340 346 348 351 351 354 356 352 348 338 340 335 334 334 337 338 334 343 347 345 344 340 345 345 341 336 329 329 322 320 320 323 321 323 323 327 331 334 336 338 340

GFSSE_sfc_thetae_123.txt.gz
Theta_e
354 364 367 366 365 364 364 364 362 361 361 361 361 362 362 362 362 361 362 363 364 363 362 359 359 356 354 356 357 358 359 358 357 353 352 352 351 351 352 352 350 347 350
357 363 366 366 364 364 364 364 361 360 361 361 361 362 362 362 362 361 362 363 364 363 360 359 358 356 354 356 356 356 357 358 357 355 352 351 350 352 351 350 351 348 350
356 362 364 365 364 364 364 363 361 360 361 361 361 361 362 363 362 361 361 362 362 361 359 358 356 354 354 355 355 355 355 356 356 356 353 347 346 349 349 348 349 349 349
356 359 362 365 365 363 363 362 360 359 361 361 361 361 362 362 363 362 361 362 362 358 357 355 354 354 353 354 353 352 354 355 356 355 350 351 343 350 349 348 347 347 347
354 358 362 365 365 364 364 362 360 360 361 361 361 361 361 362 362 362 361 361 361 358 357 355 355 356 355 355 355 355 356 357 356 355 350 349 339 350 351 351 348 346 346
353 358 363 364 365 364 363 362 360 360 361 361 361 362 361 362 362 362 361 360 359 358 355 355 357 357 356 356 356 356 356 356 355 345 343 343 341 355 355 353 354 350 349
353 358 361 364 364 364 363 362 361 361 360 361 361 362 361 361 361 361 361 359 358 357 356 356 357 356 356 355 355 355 354 353 347 343 342 344 345 353 356 356 356 354 351
355 356 360 364 363 363 362 362 361 360 360 360 361 361 361 360 360 360 359 359 358 357 357 357 357 356 355 354 353 352 351 351 344 340 338 342 349 355 357 355 354 355 354
354 354 357 360 362 363 362 361 360 360 359 359 359 360 360 359 359 359 358 359 359 357 355 356 356 355 354 354 353 352 352 351 342 341 339 341 354 357 359 357 356 356 356
351 352 353 356 358 359 359 361 360 360 360 359 359 359 359 359 359 358 356 358 358 357 355 355 355 354 354 352 352 352 353 351 343 340 337 334 354 358 359 358 358 357 356
349 348 350 352 354 356 357 360 360 361 360 359 359 359 356 352 354 355 355 357 357 356 355 354 354 354 353 352 352 352 352 343 339 337 336 343 354 357 358 357 357 357 357
344 345 347 347 349 351 356 356 356 357 356 355 355 355 351 346 349 352 353 356 356 356 355 354 353 353 353 342 339 350 343 340 336 332 327 345 353 356 356 355 353 353 353
340 345 345 344 344 343 349 352 353 353 353 352 351 351 346 346 348 348 345 348 348 354 348 349 348 346 342 338 334 330 338 335 331 331 332 349 351 355 355 352 350 350 350
335 338 345 343 342 339 348 346 344 346 345 345 345 348 344 341 341 342 343 344 346 346 344 341 342 342 340 337 334 332 333 332 333 333 333 351 351 354 355 354 352 351 350
337 336 342 342 339 341 345 341 342 342 342 342 342 347 342 340 341 341 343 343 344 345 345 340 340 340 340 339 337 335 335 335 336 337 338 354 351 351 354 356 355 353 353
338 336 340 340 339 341 344 341 342 343 343 344 343 347 345 343 341 343 341 344 343 345 343 341 340 339 342 342 341 341 342 343 344 345 345 345 351 349 351 354 355 354 354
336 338 339 341 340 336 338 344 345 345 345 346 345 347 347 346 343 349 343 343 347 347 344 342 344 347 346 346 344 344 345 345 346 344 345 345 346 351 350 351 352 354 354
332 334 340 347 341 340 337 337 340 341 348 348 349 348 348 351 352 353 349 352 349 347 345 345 344 344 345 345 343 346 347 348 347 343 345 346 347 347 350 353 353 353 354
330 333 334 336 339 339 336 336 336 335 336 352 352 353 350 352 353 351 351 349 349 349 346 340 332 333 343 344 341 342 337 337 336 340 336 335 336 337 341 349 352 351 352
328 329 332 334 336 337 335 334 334 332 333 349 351 355 353 353 352 350 351 349 349 347 342 338 330 331 343 339 343 337 334 334 331 334 333 337 336 336 336 336 336 340 349
322 326 328 329 331 336 335 331 330 329 336 339 353 355 355 355 352 346 344 343 347 347 344 345 342 341 342 337 332 327 327 329 324 325 331 325 326 328 329 329 329 335 344
321 323 327 330 335 333 335 333 328 327 337 343 353 350 354 352 342 336 337 334 344 343 339 341 340 336 333 330 323 319 315 314 317 321 321 322 320 323 328 327 328 334 340
319 325 328 330 335 328 329 329 327 325 334 325 345 349 348 349 347 342 339 346 346 344 339 339 339 333 327 327 326 316 309 308 312 315 318 321 321 322 324 326 329 331 335
320 326 327 328 335 337 341 336 331 336 338 342 343 347 347 340 330 347 348 347 346 338 336 334 341 335 331 326 322 322 319 316 311 310 314 318 321 324 324 324 322 326 331
323 326 328 336 340 344 343 344 340 338 339 342 342 340 342 347 348 351 348 346 342 335 331 330 327 334 331 325 319 317 315 314 316 313 309 311 315 319 320 317 317 321 321
319 319 320 336 338 342 345 344 341 334 334 330 334 334 338 339 338 341 342 340 334 334 331 331 329 329 329 326 323 320 318 315 312 311 309 309 312 314 315 318 318 316 320

GFSSE_sfc_thetae_129.txt.gz
Theta_e
353 359 364 363 362 361 361 360 360 361 361 361 361 361 360 359 359 359 360 361 361 361 359 355 354 354 355 355 354 354 355 355 353 354 354 354 353 353 353 352 351 348 351
356 360 364 363 363 362 361 360 360 360 360 361 360 360 359 359 359 360 361 362 362 360 359 355 354 355 355 355 355 355 353 354 354 351 352 353 353 351 353 349 349 347 350
356 359 361 363 363 362 361 360 359 359 359 360 359 359 359 359 360 361 361 361 361 358 358 355 354 356 355 355 355 356 355 355 355 353 350 343 345 351 352 349 350 349 349
357 358 359 363 362 362 360 359 359 359 359 359 359 358 359 359 361 362 361 362 359 358 356 354 353 355 355 354 354 354 354 354 354 353 348 347 343 349 348 349 349 348 349
356 356 358 363 362 361 360 360 359 359 358 359 359 358 358 359 360 360 361 361 359 356 354 353 353 353 353 353 354 355 356 355 354 350 346 347 342 347 349 348 348 348 347
355 356 361 362 362 361 360 360 359 359 359 359 359 359 358 357 359 360 360 360 359 356 354 353 353 353 353 352 353 353 354 354 351 340 339 340 345 350 351 349 348 349 349
353 356 358 361 362 361 360 359 360 359 358 359 360 359 358 359 359 359 360 360 359 357 354 353 354 355 354 353 353 352 353 351 344 338 335 340 344 349 354 353 352 351 349
355 359 359 361 361 360 360 359 359 358 358 359 359 359 360 359 360 359 359 358 358 357 356 354 355 354 353 352 352 351 351 350 343 336 335 333 344 350 354 356 357 355 351
356 356 357 357 360 360 359 358 358 358 358 358 358 358 359 359 360 359 358 357 356 356 356 356 355 354 352 352 352 351 351 349 339 337 337 333 345 353 354 357 357 357 354
352 352 351 355 357 357 355 359 359 358 358 358 358 358 358 358 359 359 356 356 356 355 355 355 354 354 353 352 351 351 352 350 340 337 337 334 345 352 355 359 357 356 356
349 350 349 351 353 355 354 356 358 358 358 358 358 358 355 351 352 354 354 355 357 356 354 354 354 353 352 352 351 351 350 340 337 337 334 339 343 346 355 359 358 356 355
343 346 351 351 350 353 356 354 352 354 354 352 352 352 349 347 347 351 353 355 356 356 355 354 353 353 351 341 340 346 340 338 336 336 333 342 345 346 353 358 359 358 357
345 347 349 350 352 352 352 352 353 353 352 351 350 349 346 347 346 348 346 348 346 352 346 348 345 344 341 339 337 333 330 330 334 334 335 344 346 348 352 354 357 358 356
343 346 348 350 351 352 352 350 352 353 351 350 350 348 344 342 340 341 341 341 341 342 342 340 340 339 338 337 335 332 329 327 330 332 332 343 346 349 353 356 357 358 355
332 343 346 348 348 350 350 351 350 350 349 349 347 347 345 340 337 338 338 338 339 341 340 338 338 337 336 336 336 334 332 331 330 331 331 342 346 348 353 357 359 359 356
333 340 344 344 346 344 347 346 348 349 347 345 344 345 345 342 340 337 337 338 338 340 341 341 339 337 337 336 336 336 336 336 336 336 337 341 348 351 353 356 358 359 359
332 336 339 338 340 339 342 342 343 341 342 341 341 342 345 342 338 339 338 337 340 340 340 340 339 337 336 337 338 340 341 342 342 343 345 345 344 349 352 353 355 356 357
333 334 338 342 340 340 341 340 340 341 340 340 340 340 342 344 341 337 338 339 340 340 341 338 338 338 338 339 340 340 342 345 345 347 344 341 338 338 342 348 352 353 356
333 330 337 339 339 339 339 341 340 338 338 337 337 341 346 347 347 343 340 340 343 340 341 341 338 339 337 336 339 338 338 337 339 339 336 335 332 334 329 337 343 344 343
331 331 330 338 337 337 339 337 337 336 336 337 337 337 339 339 340 339 342 344 346 343 340 337 333 333 333 333 337 337 340 338 335 334 332 332 331 324 322 323 324 325 337
325 327 326 331 334 338 337 334 331 331 334 336 337 339 337 336 338 337 334 336 340 343 340 337 335 333 331 334 332 333 332 330 329 328 327 325 322 321 319 321 321 322 327
324 326 327 329 331 337 337 330 330 329 331 333 333 335 335 334 333 332 331 335 337 332 336 337 334 333 333 334 329 323 320 320 316 318 319 322 318 317 318 319 320 321 325
321 323 327 328 329 332 330 325 325 327 325 325 325 330 333 335 335 335 335 332 333 337 336 340 337 334 332 332 331 325 313 312 309 312 315 315 314 315 316 319 320 323 323
321 324 325 326 326 327 326 322 321 321 322 324 322 329 333 336 340 339 337 335 334 335 336 338 337 334 332 329 328 329 320 313 308 308 311 313 314 316 316 317 320 320 319
317 319 325 328 327 325 325 324 322 319 323 326 322 322 324 332 332 340 339 340 335 333 337 334 333 335 335 330 327 321 319 314 312 310 308 310 311 313 315 316 316 316 316
324 329 328 327 327 327 328 325 322 323 324 325 324 324 327 330 326 326 328 331 335 334 334 332 330 329 329 329 325 322 318 314 312 310 308 309 309 314 313 313 313 315 317

GFSSE_sfc_thetae_132.txt.gz
Theta_e
351 358 363 362 362 362 362 362 362 363 362 363 363 363 361 360 359 360 360 361 362 362 358 354 355 355 354 354 354 355 356 355 355 355 355 354 353 352 351 350 350 347 349
354 358 361 362 362 362 361 361 362 361 361 361 362 361 360 359 359 359 361 361 361 359 356 354 355 356 355 354 353 353 353 355 355 354 354 353 353 353 352 350 349 348 350
355 359 359 362 362 361 361 361 360 360 360 360 360 359 359 359 360 360 361 361 361 359 356 354 356 356 355 355 354 354 354 355 355 353 352 349 349 354 350 349 349 349 349
356 358 358 363 361 361 360 360 359 360 359 359 359 359 359 359 360 361 361 361 359 358 356 354 356 356 356 355 356 356 357 356 356 354 348 345 347 351 350 349 350 349 349
355 356 358 362 361 360 360 359 359 359 359 358 359 359 359 361 360 360 361 360 359 357 356 353 355 357 356 355 355 356 357 357 356 353 350 350 345 348 349 350 349 349 349
352 355 361 362 361 360 360 360 359 359 358 358 358 358 359 360 360 360 361 360 359 356 354 354 355 356 356 355 355 355 355 355 351 343 343 342 349 349 351 350 349 350 348
352 356 359 361 361 360 360 359 359 359 358 358 358 358 358 358 359 360 360 359 358 357 354 353 354 355 355 354 353 352 352 350 346 341 338 341 346 349 355 353 351 351 351
354 355 357 361 360 360 360 359 358 358 358 359 358 358 358 357 358 358 359 359 359 357 356 354 355 354 353 352 352 351 351 349 344 339 338 337 343 350 355 356 355 354 352
356 355 356 357 358 359 359 358 358 357 357 358 358 358 358 358 358 358 358 357 357 357 356 355 355 353 352 351 351 350 350 348 344 342 340 339 340 349 354 357 357 358 355
353 353 351 353 353 355 355 359 358 357 357 357 357 358 358 358 359 358 356 356 356 355 355 355 355 353 352 351 351 351 351 349 344 341 340 339 342 345 353 357 359 357 357
351 350 350 351 352 354 354 356 358 357 358 357 357 357 355 353 355 356 356 355 356 355 354 354 354 353 352 352 352 351 350 344 341 339 338 340 343 345 349 358 359 358 357
345 348 350 350 351 352 355 354 353 353 354 353 353 353 350 349 349 352 354 355 355 356 355 354 353 353 352 347 343 345 344 342 340 339 337 341 345 346 349 353 357 359 358
344 346 348 350 351 352 352 353 352 353 352 351 351 351 348 348 348 350 348 349 350 352 350 349 348 347 345 343 341 339 336 333 333 335 336 343 346 346 349 353 354 356 358
341 343 347 349 350 351 353 352 351 352 352 350 351 349 347 344 344 344 345 345 345 346 345 345 343 342 341 341 339 338 336 334 332 332 335 342 346 346 348 354 356 357 357
338 343 346 350 349 351 350 350 351 351 350 349 350 349 347 343 341 342 342 342 342 343 343 342 341 340 339 339 339 338 338 337 335 335 335 341 346 348 351 355 358 359 359
335 341 345 347 349 350 350 350 349 350 350 349 348 348 346 344 342 339 340 340 340 341 342 342 342 341 340 340 339 339 338 339 339 340 340 341 345 348 352 356 358 360 360
332 339 343 345 345 346 347 349 348 349 348 346 345 346 347 345 342 341 338 339 340 341 341 341 342 342 340 340 339 340 342 343 344 345 346 347 348 349 351 352 354 356 357
332 334 339 343 343 343 346 345 343 344 343 344 344 344 346 346 344 339 339 339 341 341 341 340 341 341 340 341 339 340 343 345 347 348 349 350 347 346 344 348 352 353 352
332 333 337 340 340 340 339 340 339 341 342 343 343 342 343 344 344 341 339 339 341 342 342 341 340 340 341 341 339 341 341 341 342 344 343 341 341 341 337 338 344 343 342
333 331 334 337 337 338 338 337 336 337 338 339 340 343 346 346 346 344 343 343 344 344 344 341 340 337 337 335 336 337 338 340 342 340 340 338 336 337 332 330 331 331 336
330 331 328 335 335 338 337 336 335 334 335 337 340 340 339 339 339 337 338 339 340 341 343 341 338 335 335 334 333 332 335 336 336 335 338 336 332 331 328 328 328 330 329
328 328 327 330 335 338 338 333 335 333 334 335 335 336 337 336 337 335 333 334 338 338 333 331 333 334 335 336 331 326 324 327 328 322 328 329 329 327 324 326 326 328 331
322 324 327 327 330 334 329 328 328 328 328 329 330 332 335 336 336 336 335 335 335 335 332 330 328 333 330 332 333 328 318 317 317 319 321 322 325 323 324 325 327 328 330
322 322 325 326 329 329 328 328 327 325 324 326 326 331 333 335 336 339 338 338 338 335 333 331 335 334 334 331 330 331 326 319 312 312 320 320 321 321 324 324 325 326 328
319 321 324 325 326 327 326 326 324 323 325 326 325 325 326 332 334 336 338 339 335 333 335 336 336 335 334 329 328 327 326 324 318 315 316 318 319 321 322 323 324 324 324
323 326 328 328 326 326 326 325 325 324 324 323 324 326 325 327 324 325 327 329 331 335 335 334 335 334 333 332 330 327 322 318 317 315 314 315 316 320 322 321 321 322 322

GFSSE_sfc_thetae_135.txt.gz
Theta_e
354 362 363 363 363 364 365 365 364 362 362 361 361 361 362 360 360 361 362 362 363 361 357 357 357 355 357 355 355 356 357 357 356 354 353 352 351 350 350 350 350 346 350
358 361 362 363 363 363 364 364 364 363 363 363 363 362 361 360 360 360 361 362 362 358 354 355 355 354 354 354 354 354 354 357 357 355 354 354 353 352 351 351 349 349 349
358 359 359 362 362 362 363 363 362 362 363 362 362 361 360 360 360 361 362 362 361 357 354 355 356 355 354 354 353 353 353 355 356 354 354 350 349 353 351 350 350 350 350
358 360 358 362 362 362 361 361 361 361 361 360 360 360 359 359 360 361 361 362 360 357 354 356 356 355 355 354 354 354 353 353 353 351 348 347 346 354 350 349 350 350 350
358 358 360 362 361 361 361 360 360 360 359 360 360 359 359 360 361 361 361 361 360 358 354 356 357 357 357 357 357 357 356 356 355 355 355 353 349 348 351 350 350 350 350
356 356 361 361 361 360 360 360 360 359 359 360 360 360 360 361 360 360 361 360 359 357 354 355 357 357 357 356 356 357 356 355 354 349 350 350 354 354 351 351 350 350 349
355 355 358 361 360 360 361 360 359 359 358 358 359 360 360 360 360 361 360 359 358 355 354 353 354 356 356 356 355 355 354 352 350 348 346 348 351 351 354 353 352 351 351
354 356 358 360 360 360 360 359 359 358 357 357 358 358 359 359 359 360 359 358 357 355 353 353 353 354 354 354 353 353 353 351 348 346 344 345 350 350 353 356 355 354 353
356 356 356 356 359 360 358 358 358 357 357 356 356 357 357 358 358 358 358 358 357 355 353 353 353 352 352 352 352 351 351 349 348 346 342 343 345 345 353 358 357 356 356
355 354 354 355 352 353 356 358 357 357 357 356 356 356 357 357 357 358 355 356 355 354 352 352 353 353 352 352 352 351 350 349 345 344 342 341 345 345 347 357 359 358 358
352 353 353 351 352 352 352 355 357 358 357 357 356 356 353 349 353 355 355 356 355 353 351 352 352 353 352 352 352 352 350 344 344 341 339 345 344 346 348 352 358 359 358
350 351 351 352 352 352 351 355 354 353 353 353 353 354 351 354 354 353 356 355 354 354 353 353 352 352 350 343 343 344 340 341 339 339 337 345 344 346 348 352 355 358 359
351 351 352 355 356 353 351 354 353 352 352 354 355 356 354 352 353 351 351 351 353 353 350 349 349 348 346 346 342 341 340 340 337 336 337 343 345 346 349 352 354 355 355
350 352 354 356 357 357 356 355 355 353 353 351 353 357 354 351 352 351 349 349 352 350 350 350 346 347 347 346 345 344 342 342 339 340 341 344 345 346 348 353 355 356 357
347 351 353 355 355 355 356 355 355 354 353 353 353 354 352 350 351 351 350 349 348 348 348 347 347 347 346 345 345 346 346 346 345 342 344 348 346 347 349 353 357 359 360
347 349 352 354 356 356 356 357 355 356 355 355 353 353 354 351 352 350 350 349 349 348 347 346 346 345 345 346 345 349 349 349 348 346 345 348 349 348 348 351 357 361 361
345 352 353 354 355 356 356 357 356 356 355 353 353 356 354 354 353 352 350 349 348 349 348 349 348 348 347 346 346 347 348 351 350 348 350 350 354 351 351 353 355 358 358
343 349 354 354 354 356 355 356 355 355 353 353 353 355 354 354 353 353 350 349 350 349 346 346 347 346 345 346 347 350 349 349 350 350 353 355 354 353 348 347 351 354 355
345 344 350 353 352 354 355 354 355 355 353 354 354 355 355 351 351 352 348 349 350 347 345 346 347 346 344 346 348 349 350 347 348 348 348 351 352 349 347 346 344 348 346
344 345 347 350 351 352 351 352 352 351 352 353 353 353 354 353 351 352 349 350 349 348 348 349 347 349 346 346 343 343 342 344 345 344 345 345 348 344 342 340 335 335 340
343 343 346 348 349 348 347 345 346 345 347 349 350 352 351 352 352 353 351 352 353 350 349 351 349 346 345 343 340 340 339 340 340 342 343 339 340 339 337 336 335 335 333
341 344 343 347 347 348 347 347 348 346 346 349 349 350 349 347 346 348 349 348 348 344 346 346 346 342 342 345 336 334 325 329 336 338 334 332 328 333 332 333 334 334 337
339 340 342 343 346 347 347 343 342 344 344 345 346 346 347 346 346 345 344 343 343 342 340 342 342 339 334 337 335 330 323 321 320 326 324 325 325 326 330 334 334 334 336
337 338 338 340 343 344 344 343 343 341 340 340 341 343 342 342 342 344 345 345 346 342 340 342 341 337 335 332 338 336 331 324 317 317 325 325 325 326 330 331 333 335 336
333 333 336 338 340 341 343 344 341 339 340 338 337 337 337 339 336 336 339 340 343 343 343 340 341 338 337 336 331 329 330 327 324 322 318 322 326 329 330 330 332 334 337
332 333 335 336 336 338 338 338 337 337 336 335 333 332 331 327 328 328 329 330 332 332 330 331 335 340 340 339 338 335 328 327 325 325 322 322 323 328 331 331 332 330 332

GFSSE_sfc_thetae_138.txt.gz
Theta_e
357 363 364 365 365 366 366 364 364 363 361 360 360 361 361 361 361 363 363 363 363 360 359 359 358 359 357 354 354 355 357 357 355 354 353 353 352 351 350 349 349 347 351
360 363 363 364 365 366 366 364 363 362 361 361 361 362 362 360 361 363 363 364 362 358 357 357 356 358 356 355 355 355 356 356 356 354 354 353 351 351 350 350 351 349 349
360 363 359 364 365 366 365 364 362 361 361 361 362 362 361 361 361 362 363 363 360 356 356 356 355 354 355 354 354 355 356 356 355 355 355 353 349 353 352 351 350 349 349
361 361 355 362 364 365 364 364 363 363 363 362 362 361 360 361 361 363 363 362 359 355 356 356 356 355 354 354 353 354 354 355 354 354 352 347 346 354 352 350 350 350 350
360 357 357 362 362 364 364 363 362 362 362 361 361 361 360 361 361 362 362 362 359 355 357 357 356 356 355 354 354 354 354 353 353 352 354 350 349 352 352 350 350 350 350
356 355 360 361 361 362 363 362 362 361 361 361 361 360 361 361 361 362 362 362 360 356 356 357 357 357 357 357 357 356 355 355 355 355 353 353 354 350 352 351 351 351 350
354 355 357 361 361 361 362 362 361 360 360 360 360 361 361 361 361 361 361 360 358 357 355 356 356 356 355 354 353 353 354 354 353 352 352 352 351 353 353 353 352 352 351
353 355 355 360 360 360 360 360 359 359 359 360 360 361 361 361 361 361 360 358 356 355 354 353 353 353 353 351 351 351 351 352 353 352 350 350 351 351 353 356 356 355 353
354 352 354 353 358 360 360 359 358 358 358 358 358 359 359 360 360 360 359 358 357 355 354 353 352 351 350 350 350 350 350 351 350 351 349 347 348 343 352 356 357 357 356
353 352 351 352 352 353 356 359 358 357 357 356 357 358 358 358 358 358 357 358 356 354 352 352 352 352 350 350 350 350 350 350 345 345 347 344 346 344 346 353 359 358 357
352 352 351 349 350 350 350 355 358 358 357 356 356 356 354 349 353 355 354 356 355 353 351 351 351 351 350 351 351 351 350 342 342 343 340 346 345 345 347 351 354 358 359
349 351 351 351 351 350 348 353 352 352 351 349 348 351 345 346 348 348 354 356 356 354 352 351 351 351 349 339 344 348 341 338 339 338 337 345 345 345 347 351 354 355 359
350 351 351 353 355 352 351 352 350 351 352 352 353 352 351 350 352 350 352 353 355 354 351 351 349 347 343 343 340 340 338 338 337 335 338 344 345 344 347 352 355 355 355
351 353 353 355 356 356 353 354 353 352 353 353 354 358 355 351 352 349 346 346 349 347 348 348 343 345 346 347 344 342 341 341 339 339 343 347 346 346 348 351 355 356 356
352 354 355 357 359 359 359 356 356 355 355 355 355 358 355 352 353 352 351 348 346 345 344 345 345 345 346 345 343 343 343 345 346 344 343 350 348 349 349 351 354 357 358
354 356 357 357 360 360 361 362 359 359 358 357 356 356 356 355 355 352 353 351 349 348 345 343 343 345 345 343 342 347 351 352 350 351 344 348 351 351 352 352 355 358 360
354 357 358 359 360 361 359 360 361 359 357 356 355 359 358 358 357 357 352 351 351 351 350 347 347 346 345 344 348 351 352 353 354 355 354 349 349 351 352 354 355 358 358
354 355 358 357 359 361 361 360 359 357 358 357 357 358 360 359 358 358 352 351 351 351 349 345 343 344 345 345 349 350 352 353 354 354 354 354 354 353 356 354 351 352 356
354 355 357 359 358 360 362 360 360 359 357 356 357 356 360 358 357 357 353 353 356 351 348 345 343 347 347 349 349 350 350 350 352 351 352 352 353 352 351 349 343 345 346
353 354 357 359 361 360 357 359 358 356 355 355 355 356 360 359 358 357 354 355 355 350 349 348 350 347 347 348 344 344 347 349 348 349 348 346 344 350 349 351 346 342 341
353 353 354 355 359 357 355 353 352 352 352 353 354 356 357 355 355 357 354 358 360 357 358 356 353 351 346 348 346 342 339 345 346 343 342 343 339 343 345 342 341 343 335
352 353 353 355 358 356 354 355 354 353 352 353 354 356 355 355 356 355 355 353 354 350 351 352 353 349 346 348 343 340 333 335 338 338 337 335 335 332 336 335 335 333 333
350 352 352 355 357 357 358 354 352 352 352 349 350 352 352 353 355 353 351 349 350 349 345 349 349 348 342 345 346 336 325 325 329 335 330 332 331 330 333 331 331 332 332
346 351 352 354 355 354 356 353 352 347 346 349 352 351 353 349 349 348 346 346 346 347 347 344 343 343 341 339 339 340 338 333 322 321 331 333 331 329 329 330 329 330 332
343 345 348 350 352 351 352 352 349 348 348 346 345 345 346 343 342 340 342 342 341 341 342 340 339 341 344 341 339 337 336 333 331 324 322 326 331 333 333 329 328 330 333
340 342 344 346 347 349 350 349 350 349 346 343 343 340 338 339 336 335 336 337 336 336 335 335 336 337 331 332 335 338 334 335 329 329 326 327 327 331 331 331 335 335 337

GFSSE_sfc_thetae_141.txt.gz
Theta_e
353 361 366 367 368 368 366 364 363 362 361 361 360 361 361 361 363 363 363 362 362 361 361 361 360 360 357 353 354 355 355 355 354 354 353 352 351 350 349 348 349 350 352
357 361 365 366 367 368 365 364 363 361 361 361 362 362 362 361 363 364 364 362 361 360 359 359 359 358 355 354 354 355 355 355 353 353 352 352 350 350 349 349 351 350 352
359 361 361 366 367 367 365 364 362 361 361 361 362 362 361 362 363 363 364 362 359 358 357 356 357 357 355 354 354 355 355 355 354 353 355 354 348 352 351 349 349 349 348
360 362 359 365 366 366 365 363 362 361 361 362 362 362 361 362 363 363 364 361 357 356 356 355 354 354 354 353 353 355 355 354 354 355 354 351 347 353 352 350 349 349 349
359 359 362 365 365 366 365 363 362 362 362 362 362 362 361 362 362 363 363 362 357 356 356 355 355 354 354 353 353 352 352 351 352 353 355 347 349 352 353 350 349 350 350
356 356 362 364 364 365 365 364 363 363 362 362 362 361 362 362 362 362 363 362 358 356 357 356 356 355 354 354 354 355 355 355 356 358 352 353 350 352 353 351 350 352 350
353 354 359 363 363 364 364 363 362 362 361 361 361 361 362 362 362 362 361 360 358 356 357 357 357 356 356 355 354 352 353 355 354 354 350 350 352 355 354 352 352 352 352
351 355 354 362 363 363 363 362 361 360 360 360 360 361 361 361 361 361 361 359 358 356 355 356 356 355 354 352 350 351 352 352 352 353 351 350 353 355 354 355 356 354 353
352 351 352 355 360 362 361 361 360 360 359 359 359 360 360 361 361 361 360 358 356 355 354 353 353 352 351 350 350 350 351 351 349 350 351 349 351 350 352 355 357 357 356
352 350 349 350 351 355 360 360 360 360 359 359 359 360 359 360 360 360 358 359 357 355 354 354 353 352 350 350 350 350 350 350 345 344 344 347 351 347 345 350 356 359 359
349 350 349 347 347 347 347 356 358 358 359 358 358 358 355 348 354 357 354 358 358 356 355 354 353 352 352 352 353 353 351 341 341 342 342 350 349 346 345 350 353 354 359
348 349 349 348 349 348 347 352 349 349 350 349 348 352 346 346 351 350 354 358 357 356 355 354 353 353 351 338 343 351 344 338 336 338 338 350 349 347 346 350 353 355 355
350 350 349 351 355 350 348 350 349 349 348 347 348 351 352 343 347 344 348 352 352 355 351 350 349 345 341 338 337 345 343 339 337 335 338 351 348 348 348 351 354 356 355
351 352 351 351 356 357 350 351 350 350 351 350 351 353 354 348 350 348 345 349 350 349 350 348 347 349 345 344 344 340 340 338 336 336 340 351 348 349 350 352 354 356 356
351 352 352 354 358 362 363 353 353 352 351 354 355 357 353 353 353 351 348 346 345 345 344 344 344 346 344 344 343 342 340 340 341 340 342 354 350 350 352 353 355 357 357
355 354 355 355 361 358 361 365 356 356 356 354 354 356 359 357 358 353 354 350 349 347 346 344 343 344 344 345 344 343 342 344 346 350 345 347 351 351 353 354 356 358 359
356 360 358 358 361 363 362 363 361 358 356 354 353 359 360 360 363 359 355 352 351 353 351 349 347 347 343 344 347 343 344 347 348 352 354 351 351 350 352 354 356 358 357
357 359 363 358 361 362 363 363 363 361 358 356 356 358 359 360 362 364 355 353 353 354 349 346 344 341 340 340 345 343 346 349 349 352 352 353 352 352 352 355 352 349 350
359 358 359 360 359 360 364 362 362 367 361 363 361 360 361 358 357 359 355 353 357 352 349 347 346 348 342 343 343 346 349 347 350 345 351 352 354 353 352 351 345 345 346
358 361 360 359 362 367 362 365 363 367 359 358 357 356 359 359 358 360 355 357 356 353 351 355 353 353 350 347 343 342 349 346 348 348 346 347 347 347 349 353 351 345 340
359 358 359 360 366 361 358 354 359 354 358 357 356 357 361 357 360 360 354 359 358 356 356 357 354 351 350 351 342 345 347 348 346 345 345 345 345 343 343 347 348 345 341
355 356 358 359 362 362 358 359 357 356 359 360 357 358 359 355 355 357 359 359 358 356 357 355 355 347 347 352 345 339 334 338 341 341 340 340 339 339 338 340 339 337 335
351 355 355 360 362 362 362 362 359 356 363 352 352 361 357 354 355 355 353 352 352 351 346 351 349 348 342 344 348 340 329 328 333 335 338 334 335 334 336 337 339 335 335
350 353 354 356 358 361 362 359 359 350 350 352 362 359 356 350 351 350 349 348 348 348 350 348 346 344 344 339 346 348 344 340 329 325 333 336 337 339 338 336 334 335 334
351 351 352 354 356 356 358 359 352 355 351 350 349 350 350 346 345 343 344 343 342 342 343 341 342 341 338 339 342 342 342 341 338 330 325 327 333 334 336 337 336 334 335
345 351 351 351 352 353 355 356 356 354 355 346 346 343 342 342 339 339 337 338 337 336 336 335 338 339 338 336 337 335 334 332 334 334 331 333 330 331 336 335 338 334 336

GFSSE_sfc_thetae_144.txt.gz
Theta_e
354 361 367 369 368 366 365 364 363 362 361 361 361 361 361 362 362 363 362 362 363 363 363 361 359 359 355 354 355 358 358 357 355 354 353 353 352 351 350 350 351 349 352
356 360 366 368 368 366 365 364 362 361 361 361 362 361 361 363 363 363 362 362 363 361 361 360 359 357 354 354 355 355 356 355 354 353 352 351 351 351 350 351 353 349 352
356 360 363 367 367 365 364 363 361 361 361 361 362 361 361 363 363 364 362 362 362 360 358 359 358 356 355 354 354 355 355 354 353 353 354 351 346 352 351 350 350 350 349
357 358 360 366 367 365 364 363 361 361 361 361 362 361 361 363 363 363 362 361 360 358 357 356 356 355 354 353 354 354 354 353 354 355 352 353 350 354 352 351 349 348 349
357 356 364 366 366 365 364 362 361 361 361 362 362 361 361 362 363 363 362 360 359 356 356 355 354 354 354 352 353 353 352 352 354 353 350 351 347 351 355 351 350 349 349
354 356 364 365 365 364 364 362 361 362 362 362 362 361 361 362 362 362 362 359 358 357 357 356 355 355 354 353 353 352 354 356 357 352 355 350 348 355 356 354 349 352 352
352 360 361 364 364 364 364 363 362 362 361 361 361 361 362 362 362 362 362 361 358 359 357 357 357 357 357 355 355 353 353 355 352 349 350 348 349 356 357 356 354 353 354
352 357 359 364 364 363 363 362 361 361 360 360 360 361 361 361 361 361 361 361 359 358 359 358 357 357 357 356 354 354 354 352 349 347 349 349 352 357 358 356 355 355 355
354 353 356 359 363 362 362 361 360 360 359 360 360 360 360 360 361 361 361 360 359 358 357 357 357 356 355 354 353 353 353 352 346 344 346 347 356 358 359 358 357 357 356
350 349 351 357 358 360 360 361 360 360 359 359 359 359 359 360 360 360 358 358 358 357 357 356 355 354 354 353 353 353 353 353 345 340 340 342 354 357 357 357 358 358 358
347 347 347 347 352 354 357 359 360 360 360 359 359 359 356 352 354 355 354 358 358 357 356 356 355 354 354 353 353 353 354 343 338 339 341 353 353 355 354 352 353 354 356
344 345 345 344 346 346 349 357 357 357 356 356 354 355 350 348 351 350 353 358 359 358 356 355 354 354 353 342 342 351 346 340 336 335 336 353 355 355 353 352 352 353 354
346 346 345 347 348 345 345 348 346 349 349 350 351 352 350 345 350 347 353 351 353 354 350 351 349 347 341 338 336 339 340 341 340 335 338 353 353 354 353 351 352 353 354
346 347 347 350 350 353 350 345 348 347 348 347 348 352 349 351 354 348 347 350 350 348 348 348 347 345 342 341 338 341 342 339 337 335 340 353 352 351 352 352 352 354 355
347 348 347 351 352 357 351 349 350 351 350 350 351 352 348 351 357 355 351 353 351 348 349 349 346 348 346 345 344 343 341 340 341 340 339 354 350 350 353 354 354 355 356
350 350 349 351 354 358 363 354 356 357 353 355 353 354 353 359 364 355 358 356 355 354 351 351 351 350 349 347 346 347 345 342 341 342 344 346 352 351 352 354 355 356 357
353 354 351 353 356 360 367 362 361 356 353 357 355 359 357 363 365 360 359 362 359 355 356 352 350 348 346 344 342 343 342 341 343 347 346 348 350 351 350 352 355 356 357
359 355 353 353 356 361 362 367 368 363 362 355 363 360 362 364 364 364 357 356 359 356 356 353 350 346 344 342 343 346 346 347 344 348 346 348 348 346 352 352 353 353 350
359 346 354 355 357 361 364 365 364 364 357 359 357 359 361 360 359 358 358 358 356 357 355 352 350 350 347 346 344 342 345 345 345 343 340 347 346 343 342 346 350 349 348
357 356 359 361 361 361 362 365 365 365 363 362 361 360 361 361 360 359 359 359 358 357 353 350 350 351 348 347 347 345 344 344 345 346 346 347 346 343 343 342 344 347 345
358 357 360 358 361 359 358 354 353 352 359 360 359 360 361 361 360 357 358 357 357 352 350 352 350 348 345 349 343 341 343 344 343 344 349 346 345 344 340 339 340 341 345
350 357 357 357 359 361 357 357 358 355 359 358 360 357 357 358 359 357 357 356 357 355 354 350 350 344 345 347 340 337 330 334 338 340 340 340 337 336 335 335 336 336 337
350 348 352 358 359 360 361 360 358 358 356 355 353 354 357 355 356 356 355 354 352 352 349 349 348 345 339 341 344 335 328 325 330 334 336 335 336 332 335 336 336 336 336
353 353 353 357 358 357 360 356 354 351 346 349 353 354 355 353 352 352 351 349 346 347 347 344 343 343 340 335 337 341 337 333 325 322 330 331 336 335 336 337 335 334 335
351 351 353 354 353 357 359 356 352 351 351 351 351 350 347 345 346 344 346 344 343 343 342 339 340 338 337 335 333 334 334 334 332 327 321 325 330 333 333 335 336 335 333
350 350 351 350 351 354 356 356 354 351 347 346 345 345 342 340 337 338 336 339 336 334 333 332 332 335 332 333 331 329 327 327 325 325 321 321 322 326 328 329 330 332 335